Time,TemperatureF,DewpointF,PressureIn,WindDirection,WindDirectionDegrees,WindSpeedMPH,WindSpeedGustMPH,Humidity,HourlyPrecipIn,Conditions,Clouds,dailyrainin,SoftwareType,DateUTC
2013-03-03 00:00:00,22.1,20.6,29.71,West,280,7.0,7.0,94,0.00,,,0.00,Wunderground v.1.15,2013-03-03 05:00:00,
2013-03-03 00:05:00,22.1,20.6,29.70,West,262,6.0,11.0,94,0.00,,,0.00,Wunderground v.1.15,2013-03-03 05:05:00,
2013-03-03 00:10:00,22.0,20.5,29.71,NW,308,8.0,9.0,94,0.00,,,0.00,Wunderground v.1.15,2013-03-03 05:10:00,
2013-03-03 00:11:00,22.1,20.6,29.70,NW,312,7.0,9.0,94,0.00,,,0.00,Wunderground v.1.15,2013-03-03 05:11:00,
2013-03-03 00:15:00,22.0,20.5,29.70,WNW,300,5.0,9.0,94,0.00,,,0.00,Wunderground v.1.15,2013-03-03 05:15:00,
2013-03-03 00:16:00,22.0,20.5,29.70,NW,321,6.0,9.0,94,0.00,,,0.00,Wunderground v.1.15,2013-03-03 05:16:00,
2013-03-03 00:20:00,22.0,20.5,29.70,NNW,330,4.0,7.0,94,0.00,,,0.00,Wunderground v.1.15,2013-03-03 05:20:00,
2013-03-03 00:21:00,22.0,20.5,29.71,NNW,335,6.0,7.0,94,0.00,,,0.00,Wunderground v.1.15,2013-03-03 05:21:00,
2013-03-03 00:25:00,22.0,20.5,29.71,NNW,330,9.0,9.0,94,0.00,,,0.00,Wunderground v.1.15,2013-03-03 05:25:00,
2013-03-03 00:26:00,22.0,20.5,29.71,North,354,6.0,9.0,94,0.00,,,0.00,Wunderground v.1.15,2013-03-03 05:26:00,
2013-03-03 00:30:00,21.9,20.4,29.71,NNW,327,3.0,5.0,94,0.00,,,0.00,Wunderground v.1.15,2013-03-03 05:30:00,
2013-03-03 00:31:00,22.0,20.5,29.71,NNW,330,2.0,5.0,94,0.00,,,0.00,Wunderground v.1.15,2013-03-03 05:31:00,
2013-03-03 00:36:00,22.0,20.5,29.71,WNW,293,3.0,5.0,94,0.00,,,0.00,Wunderground v.1.15,2013-03-03 05:36:00,
2013-03-03 00:41:00,21.9,20.4,29.71,NW,310,5.0,7.0,94,0.00,,,0.00,Wunderground v.1.15,2013-03-03 05:41:00,
2013-03-03 00:42:00,21.9,20.4,29.70,WNW,300,4.0,7.0,94,0.00,,,0.00,Wunderground v.1.15,2013-03-03 05:42:00,
2013-03-03 00:46:00,21.9,20.4,29.71,NW,325,3.0,8.0,94,0.00,,,0.00,Wunderground v.1.15,2013-03-03 05:46:00,
2013-03-03 00:47:00,21.9,20.4,29.70,WNW,302,5.0,8.0,94,0.00,,,0.00,Wunderground v.1.15,2013-03-03 05:47:00,
2013-03-03 00:51:00,21.8,20.3,29.70,WNW,288,6.0,8.0,94,0.00,,,0.00,Wunderground v.1.15,2013-03-03 05:51:00,
2013-03-03 00:52:00,21.8,20.3,29.70,NW,312,7.0,9.0,94,0.00,,,0.00,Wunderground v.1.15,2013-03-03 05:52:00,
2013-03-03 00:56:00,21.7,20.2,29.70,WNW,294,3.0,9.0,94,0.00,,,0.00,Wunderground v.1.15,2013-03-03 05:56:00,
2013-03-03 00:57:00,21.7,20.2,29.70,NNW,330,5.0,9.0,94,0.00,,,0.00,Wunderground v.1.15,2013-03-03 05:57:00,
2013-03-03 01:01:00,21.6,20.1,29.70,NW,309,4.0,9.0,94,0.00,,,0.00,Wunderground v.1.15,2013-03-03 06:01:00,
2013-03-03 01:02:00,21.6,20.1,29.70,NNW,346,4.0,9.0,94,0.00,,,0.00,Wunderground v.1.15,2013-03-03 06:02:00,
2013-03-03 01:06:00,21.6,20.1,29.70,WNW,297,3.0,9.0,94,0.00,,,0.00,Wunderground v.1.15,2013-03-03 06:06:00,
2013-03-03 01:07:00,21.6,20.1,29.70,WNW,295,4.0,9.0,94,0.00,,,0.00,Wunderground v.1.15,2013-03-03 06:07:00,
2013-03-03 01:11:00,21.6,20.1,29.70,West,278,3.0,7.0,94,0.00,,,0.00,Wunderground v.1.15,2013-03-03 06:11:00,
2013-03-03 01:12:00,21.6,20.1,29.70,NW,304,5.0,7.0,94,0.00,,,0.00,Wunderground v.1.15,2013-03-03 06:12:00,
2013-03-03 01:16:00,21.6,20.1,29.70,NW,321,5.0,7.0,94,0.00,,,0.00,Wunderground v.1.15,2013-03-03 06:16:00,
2013-03-03 01:17:00,21.6,20.1,29.70,NW,319,4.0,7.0,94,0.00,,,0.00,Wunderground v.1.15,2013-03-03 06:17:00,
2013-03-03 01:18:00,21.6,20.1,29.70,WNW,288,5.0,7.0,94,0.00,,,0.00,Wunderground v.1.15,2013-03-03 06:18:00,
2013-03-03 01:21:00,21.6,20.1,29.70,NW,326,2.0,5.0,94,0.00,,,0.00,Wunderground v.1.15,2013-03-03 06:21:00,
2013-03-03 01:22:00,21.6,20.1,29.70,WNW,298,3.0,5.0,94,0.00,,,0.00,Wunderground v.1.15,2013-03-03 06:22:00,
2013-03-03 01:23:00,21.6,20.1,29.70,WNW,288,2.0,5.0,94,0.00,,,0.00,Wunderground v.1.15,2013-03-03 06:23:00,
2013-03-03 01:27:00,21.6,20.1,29.70,WNW,297,2.0,6.0,94,0.00,,,0.00,Wunderground v.1.15,2013-03-03 06:27:00,
2013-03-03 01:28:00,21.6,20.1,29.70,WNW,285,3.0,6.0,94,0.00,,,0.00,Wunderground v.1.15,2013-03-03 06:28:00,
2013-03-03 01:32:00,21.5,20.0,29.70,NW,308,7.0,8.0,94,0.00,,,0.00,Wunderground v.1.15,2013-03-03 06:32:00,
2013-03-03 01:33:00,21.5,20.0,29.70,NW,313,8.0,10.0,94,0.00,,,0.00,Wunderground v.1.15,2013-03-03 06:33:00,
2013-03-03 01:37:00,21.5,20.0,29.70,NW,322,6.0,10.0,94,0.00,,,0.00,Wunderground v.1.15,2013-03-03 06:37:00,
2013-03-03 01:38:00,21.5,20.0,29.70,NW,310,8.0,10.0,94,0.00,,,0.00,Wunderground v.1.15,2013-03-03 06:38:00,
2013-03-03 01:42:00,21.5,20.0,29.70,WNW,300,5.0,8.0,94,0.00,,,0.00,Wunderground v.1.15,2013-03-03 06:42:00,
2013-03-03 01:43:00,21.5,20.0,29.70,West,281,4.0,8.0,94,0.00,,,0.00,Wunderground v.1.15,2013-03-03 06:43:00,
2013-03-03 01:47:00,21.5,20.0,29.70,West,280,3.0,8.0,94,0.00,,,0.00,Wunderground v.1.15,2013-03-03 06:47:00,
2013-03-03 01:48:00,21.5,20.0,29.70,NW,311,4.0,8.0,94,0.00,,,0.00,Wunderground v.1.15,2013-03-03 06:48:00,
2013-03-03 01:52:00,21.5,20.0,29.70,NW,304,4.0,7.0,94,0.00,,,0.00,Wunderground v.1.15,2013-03-03 06:52:00,
2013-03-03 01:53:00,21.5,20.0,29.69,West,277,3.0,7.0,94,0.00,,,0.00,Wunderground v.1.15,2013-03-03 06:53:00,
2013-03-03 01:57:00,21.4,19.9,29.69,WNW,294,5.0,10.0,94,0.00,,,0.00,Wunderground v.1.15,2013-03-03 06:57:00,
2013-03-03 01:58:00,21.4,19.9,29.69,SW,225,4.0,10.0,94,0.00,,,0.00,Wunderground v.1.15,2013-03-03 06:58:00,
2013-03-03 02:02:00,21.5,20.0,29.69,WNW,300,4.0,11.0,94,0.00,,,0.00,Wunderground v.1.15,2013-03-03 07:02:00,
2013-03-03 02:03:00,21.4,19.9,29.69,NW,312,7.0,11.0,94,0.00,,,0.00,Wunderground v.1.15,2013-03-03 07:03:00,
2013-03-03 02:04:00,21.4,19.9,29.69,NNW,327,4.0,11.0,94,0.00,,,0.00,Wunderground v.1.15,2013-03-03 07:04:00,
2013-03-03 02:07:00,21.4,19.9,29.69,WNW,283,2.0,11.0,94,0.00,,,0.00,Wunderground v.1.15,2013-03-03 07:07:00,
2013-03-03 02:08:00,21.4,19.9,29.69,WNW,283,3.0,11.0,94,0.00,,,0.00,Wunderground v.1.15,2013-03-03 07:08:00,
2013-03-03 02:09:00,21.4,19.9,29.69,WNW,301,4.0,5.0,94,0.00,,,0.00,Wunderground v.1.15,2013-03-03 07:09:00,
2013-03-03 02:12:00,21.4,19.9,29.69,WNW,291,4.0,9.0,94,0.00,,,0.00,Wunderground v.1.15,2013-03-03 07:12:00,
2013-03-03 02:13:00,21.3,19.8,29.69,West,277,7.0,9.0,94,0.00,,,0.00,Wunderground v.1.15,2013-03-03 07:13:00,
2013-03-03 02:14:00,21.3,19.8,29.69,WNW,297,5.0,9.0,94,0.00,,,0.00,Wunderground v.1.15,2013-03-03 07:14:00,
2013-03-03 02:17:00,21.3,19.8,29.68,WSW,239,4.0,9.0,94,0.00,,,0.00,Wunderground v.1.15,2013-03-03 07:17:00,
2013-03-03 02:18:00,21.3,19.8,29.68,West,280,5.0,9.0,94,0.00,,,0.00,Wunderground v.1.15,2013-03-03 07:18:00,
2013-03-03 02:19:00,21.3,19.8,29.68,WNW,287,3.0,5.0,94,0.00,,,0.00,Wunderground v.1.15,2013-03-03 07:19:00,
2013-03-03 02:22:00,21.3,19.8,29.68,WNW,302,2.0,5.0,94,0.00,,,0.00,Wunderground v.1.15,2013-03-03 07:22:00,
2013-03-03 02:23:00,21.3,19.8,29.68,WNW,298,3.0,5.0,94,0.00,,,0.00,Wunderground v.1.15,2013-03-03 07:23:00,
2013-03-03 02:24:00,21.3,19.8,29.68,West,267,5.0,5.0,94,0.00,,,0.00,Wunderground v.1.15,2013-03-03 07:24:00,
2013-03-03 02:25:00,21.3,19.8,29.68,West,267,4.0,8.0,94,0.00,,,0.00,Wunderground v.1.15,2013-03-03 07:25:00,
2013-03-03 02:27:00,21.3,19.8,29.68,West,268,2.0,8.0,94,0.00,,,0.00,Wunderground v.1.15,2013-03-03 07:27:00,
2013-03-03 02:28:00,21.3,19.8,29.68,WSW,245,3.0,8.0,94,0.00,,,0.00,Wunderground v.1.15,2013-03-03 07:28:00,
2013-03-03 02:29:00,21.2,19.7,29.68,West,273,5.0,8.0,94,0.00,,,0.00,Wunderground v.1.15,2013-03-03 07:29:00,
2013-03-03 02:30:00,21.2,19.7,29.68,WNW,286,2.0,6.0,94,0.00,,,0.00,Wunderground v.1.15,2013-03-03 07:30:00,
2013-03-03 02:32:00,21.2,19.7,29.68,West,273,4.0,6.0,94,0.00,,,0.00,Wunderground v.1.15,2013-03-03 07:32:00,
2013-03-03 02:33:00,21.2,19.7,29.68,WNW,298,5.0,7.0,94,0.00,,,0.00,Wunderground v.1.15,2013-03-03 07:33:00,
2013-03-03 02:34:00,21.2,19.7,29.68,West,262,6.0,7.0,94,0.00,,,0.00,Wunderground v.1.15,2013-03-03 07:34:00,
2013-03-03 02:35:00,21.2,19.7,29.68,WNW,282,3.0,7.0,94,0.00,,,0.00,Wunderground v.1.15,2013-03-03 07:35:00,
2013-03-03 02:37:00,21.1,19.6,29.68,West,273,3.0,7.0,94,0.00,,,0.00,Wunderground v.1.15,2013-03-03 07:37:00,
2013-03-03 02:38:00,21.1,19.6,29.68,West,264,4.0,7.0,94,0.00,,,0.00,Wunderground v.1.15,2013-03-03 07:38:00,
2013-03-03 02:39:00,21.1,19.6,29.68,West,265,5.0,7.0,94,0.00,,,0.00,Wunderground v.1.15,2013-03-03 07:39:00,
2013-03-03 02:40:00,21.1,19.6,29.68,WSW,242,4.0,7.0,94,0.00,,,0.00,Wunderground v.1.15,2013-03-03 07:40:00,
2013-03-03 02:42:00,21.1,19.6,29.69,WNW,287,3.0,5.0,94,0.00,,,0.00,Wunderground v.1.15,2013-03-03 07:42:00,
2013-03-03 02:43:00,21.1,19.6,29.69,West,276,3.0,5.0,94,0.00,,,0.00,Wunderground v.1.15,2013-03-03 07:43:00,
2013-03-03 02:44:00,21.1,19.6,29.69,West,260,5.0,5.0,94,0.00,,,0.00,Wunderground v.1.15,2013-03-03 07:44:00,
2013-03-03 02:45:00,21.1,19.6,29.68,West,261,6.0,8.0,94,0.00,,,0.00,Wunderground v.1.15,2013-03-03 07:45:00,
2013-03-03 02:47:00,21.0,19.5,29.69,WNW,284,6.0,8.0,94,0.00,,,0.00,Wunderground v.1.15,2013-03-03 07:47:00,
2013-03-03 02:48:00,21.0,19.5,29.69,WNW,288,3.0,8.0,94,0.00,,,0.00,Wunderground v.1.15,2013-03-03 07:48:00,
2013-03-03 02:49:00,21.0,19.5,29.69,West,269,3.0,8.0,94,0.00,,,0.00,Wunderground v.1.15,2013-03-03 07:49:00,
2013-03-03 02:50:00,21.0,19.5,29.69,West,276,4.0,4.0,94,0.00,,,0.00,Wunderground v.1.15,2013-03-03 07:50:00,
2013-03-03 02:52:00,21.0,19.5,29.68,West,265,5.0,6.0,94,0.00,,,0.00,Wunderground v.1.15,2013-03-03 07:52:00,
2013-03-03 02:53:00,21.0,19.5,29.68,WNW,285,6.0,8.0,94,0.00,,,0.00,Wunderground v.1.15,2013-03-03 07:53:00,
2013-03-03 02:54:00,21.0,19.5,29.68,WSW,242,4.0,8.0,94,0.00,,,0.00,Wunderground v.1.15,2013-03-03 07:54:00,
2013-03-03 02:55:00,21.0,19.5,29.68,WSW,246,5.0,8.0,94,0.00,,,0.00,Wunderground v.1.15,2013-03-03 07:55:00,
2013-03-03 02:57:00,20.9,19.4,29.69,West,261,5.0,8.0,94,0.00,,,0.00,Wunderground v.1.15,2013-03-03 07:57:00,
2013-03-03 02:58:00,20.9,19.4,29.68,WNW,287,8.0,8.0,94,0.00,,,0.00,Wunderground v.1.15,2013-03-03 07:58:00,
2013-03-03 02:59:00,20.9,19.4,29.68,WNW,288,5.0,8.0,94,0.00,,,0.00,Wunderground v.1.15,2013-03-03 07:59:00,
2013-03-03 03:00:00,20.9,19.4,29.68,West,266,5.0,5.0,94,0.00,,,0.00,Wunderground v.1.15,2013-03-03 08:00:00,
2013-03-03 03:03:00,20.8,19.3,29.68,West,273,5.0,8.0,94,0.00,,,0.00,Wunderground v.1.15,2013-03-03 08:03:00,
2013-03-03 03:04:00,20.8,19.3,29.68,West,264,5.0,8.0,94,0.00,,,0.00,Wunderground v.1.15,2013-03-03 08:04:00,
2013-03-03 03:05:00,20.8,19.3,29.68,SW,229,8.0,8.0,94,0.00,,,0.00,Wunderground v.1.15,2013-03-03 08:05:00,
2013-03-03 03:09:00,20.8,19.3,29.68,WNW,290,2.0,9.0,94,0.00,,,0.00,Wunderground v.1.15,2013-03-03 08:09:00,
2013-03-03 03:10:00,20.9,19.4,29.68,West,278,4.0,6.0,94,0.00,,,0.00,Wunderground v.1.15,2013-03-03 08:10:00,
2013-03-03 03:14:00,20.8,19.3,29.68,West,277,5.0,6.0,94,0.00,,,0.00,Wunderground v.1.15,2013-03-03 08:14:00,
2013-03-03 03:15:00,20.8,19.3,29.68,West,267,4.0,6.0,94,0.00,,,0.00,Wunderground v.1.15,2013-03-03 08:15:00,
2013-03-03 03:19:00,20.8,19.3,29.68,West,262,2.0,6.0,94,0.00,,,0.00,Wunderground v.1.15,2013-03-03 08:19:00,
2013-03-03 03:20:00,20.8,19.3,29.68,WNW,291,4.0,5.0,94,0.00,,,0.00,Wunderground v.1.15,2013-03-03 08:20:00,
2013-03-03 03:24:00,20.8,19.3,29.68,WSW,238,4.0,5.0,94,0.00,,,0.00,Wunderground v.1.15,2013-03-03 08:24:00,
2013-03-03 03:26:00,20.8,19.3,29.69,NW,306,3.0,5.0,94,0.00,,,0.00,Wunderground v.1.15,2013-03-03 08:26:00,
2013-03-03 03:29:00,20.8,19.3,29.68,West,266,5.0,7.0,94,0.00,,,0.00,Wunderground v.1.15,2013-03-03 08:29:00,
2013-03-03 03:31:00,20.9,19.4,29.68,West,274,6.0,8.0,94,0.00,,,0.00,Wunderground v.1.15,2013-03-03 08:31:00,
2013-03-03 03:34:00,20.8,19.3,29.68,West,266,4.0,8.0,94,0.00,,,0.00,Wunderground v.1.15,2013-03-03 08:34:00,
2013-03-03 03:36:00,20.8,19.3,29.68,West,264,2.0,8.0,94,0.00,,,0.00,Wunderground v.1.15,2013-03-03 08:36:00,
2013-03-03 03:39:00,20.9,19.4,29.68,WNW,300,3.0,8.0,94,0.00,,,0.00,Wunderground v.1.15,2013-03-03 08:39:00,
2013-03-03 03:40:00,20.8,19.3,29.68,WNW,295,3.0,8.0,94,0.00,,,0.00,Wunderground v.1.15,2013-03-03 08:40:00,
2013-03-03 03:41:00,20.9,19.4,29.68,WNW,286,3.0,5.0,94,0.00,,,0.00,Wunderground v.1.15,2013-03-03 08:41:00,
2013-03-03 03:44:00,20.9,19.4,29.68,WSW,252,4.0,6.0,94,0.00,,,0.00,Wunderground v.1.15,2013-03-03 08:44:00,
2013-03-03 03:45:00,20.8,19.3,29.68,West,274,4.0,6.0,94,0.00,,,0.00,Wunderground v.1.15,2013-03-03 08:45:00,
2013-03-03 03:46:00,20.9,19.4,29.68,West,264,2.0,6.0,94,0.00,,,0.00,Wunderground v.1.15,2013-03-03 08:46:00,
2013-03-03 03:49:00,20.9,19.4,29.68,WNW,295,2.0,6.0,94,0.00,,,0.00,Wunderground v.1.15,2013-03-03 08:49:00,
2013-03-03 03:50:00,20.8,19.3,29.68,West,262,2.0,6.0,94,0.00,,,0.00,Wunderground v.1.15,2013-03-03 08:50:00,
2013-03-03 03:51:00,20.9,19.4,29.68,West,263,2.0,4.0,94,0.00,,,0.00,Wunderground v.1.15,2013-03-03 08:51:00,
2013-03-03 03:54:00,20.8,19.3,29.68,West,278,5.0,6.0,94,0.00,,,0.00,Wunderground v.1.15,2013-03-03 08:54:00,
2013-03-03 03:55:00,20.8,19.3,29.68,WSW,253,5.0,6.0,94,0.00,,,0.00,Wunderground v.1.15,2013-03-03 08:55:00,
2013-03-03 03:56:00,20.8,19.3,29.68,WSW,243,5.0,6.0,94,0.00,,,0.00,Wunderground v.1.15,2013-03-03 08:56:00,
2013-03-03 03:59:00,20.8,19.3,29.68,WNW,298,4.0,8.0,94,0.00,,,0.00,Wunderground v.1.15,2013-03-03 08:59:00,
2013-03-03 04:00:00,20.8,19.3,29.68,WSW,256,3.0,8.0,94,0.00,,,0.00,Wunderground v.1.15,2013-03-03 09:00:00,
2013-03-03 04:01:00,20.8,19.3,29.68,West,262,7.0,8.0,94,0.00,,,0.00,Wunderground v.1.15,2013-03-03 09:01:00,
2013-03-03 04:04:00,20.8,19.3,29.68,WNW,284,2.0,8.0,94,0.00,,,0.00,Wunderground v.1.15,2013-03-03 09:04:00,
2013-03-03 04:05:00,20.8,19.3,29.68,West,266,4.0,8.0,94,0.00,,,0.00,Wunderground v.1.15,2013-03-03 09:05:00,
2013-03-03 04:07:00,20.8,19.3,29.68,West,274,4.0,8.0,94,0.00,,,0.00,Wunderground v.1.15,2013-03-03 09:07:00,
2013-03-03 04:09:00,20.8,19.3,29.68,WSW,249,6.0,8.0,94,0.00,,,0.00,Wunderground v.1.15,2013-03-03 09:09:00,
2013-03-03 04:10:00,20.8,19.3,29.68,WSW,253,6.0,6.0,94,0.00,,,0.00,Wunderground v.1.15,2013-03-03 09:10:00,
2013-03-03 04:12:00,20.8,19.3,29.68,West,274,6.0,9.0,94,0.00,,,0.00,Wunderground v.1.15,2013-03-03 09:12:00,
2013-03-03 04:14:00,20.7,19.2,29.68,WSW,253,4.0,9.0,94,0.00,,,0.00,Wunderground v.1.15,2013-03-03 09:14:00,
2013-03-03 04:15:00,20.7,19.2,29.68,West,264,6.0,9.0,94,0.00,,,0.00,Wunderground v.1.15,2013-03-03 09:15:00,
2013-03-03 04:17:00,20.7,19.2,29.68,West,266,4.0,9.0,94,0.00,,,0.00,Wunderground v.1.15,2013-03-03 09:17:00,
2013-03-03 04:19:00,20.7,19.2,29.68,West,280,6.0,9.0,94,0.00,,,0.00,Wunderground v.1.15,2013-03-03 09:19:00,
2013-03-03 04:20:00,20.7,19.2,29.68,WNW,286,5.0,6.0,94,0.00,,,0.00,Wunderground v.1.15,2013-03-03 09:20:00,
2013-03-03 04:22:00,20.7,19.2,29.68,West,270,4.0,6.0,94,0.00,,,0.00,Wunderground v.1.15,2013-03-03 09:22:00,
2013-03-03 04:24:00,20.7,19.2,29.68,West,265,5.0,9.0,94,0.00,,,0.00,Wunderground v.1.15,2013-03-03 09:24:00,
2013-03-03 04:25:00,20.7,19.2,29.68,West,260,3.0,9.0,94,0.00,,,0.00,Wunderground v.1.15,2013-03-03 09:25:00,
2013-03-03 04:27:00,20.7,19.2,29.68,WSW,257,2.0,9.0,94,0.00,,,0.00,Wunderground v.1.15,2013-03-03 09:27:00,
2013-03-03 04:29:00,20.7,19.2,29.68,WNW,291,6.0,9.0,94,0.00,,,0.00,Wunderground v.1.15,2013-03-03 09:29:00,
2013-03-03 04:30:00,20.7,19.2,29.68,West,266,4.0,6.0,94,0.00,,,0.00,Wunderground v.1.15,2013-03-03 09:30:00,
2013-03-03 04:32:00,20.7,19.2,29.68,WNW,288,7.0,7.0,94,0.00,,,0.00,Wunderground v.1.15,2013-03-03 09:32:00,
2013-03-03 04:35:00,20.6,19.1,29.68,West,268,5.0,8.0,94,0.00,,,0.00,Wunderground v.1.15,2013-03-03 09:35:00,
2013-03-03 04:36:00,20.7,19.2,29.68,West,273,7.0,8.0,94,0.00,,,0.00,Wunderground v.1.15,2013-03-03 09:36:00,
2013-03-03 04:37:00,20.7,19.2,29.68,West,277,4.0,8.0,94,0.00,,,0.00,Wunderground v.1.15,2013-03-03 09:37:00,
2013-03-03 04:40:00,20.7,19.2,29.68,West,278,7.0,8.0,94,0.00,,,0.00,Wunderground v.1.15,2013-03-03 09:40:00,
2013-03-03 04:41:00,20.6,19.1,29.68,WNW,285,4.0,6.0,94,0.00,,,0.00,Wunderground v.1.15,2013-03-03 09:41:00,
2013-03-03 04:42:00,20.6,19.1,29.68,West,278,4.0,6.0,94,0.00,,,0.00,Wunderground v.1.15,2013-03-03 09:42:00,
2013-03-03 04:45:00,20.6,19.1,29.68,West,262,5.0,8.0,94,0.00,,,0.00,Wunderground v.1.15,2013-03-03 09:45:00,
2013-03-03 04:46:00,20.6,19.1,29.68,NW,307,3.0,8.0,94,0.00,,,0.00,Wunderground v.1.15,2013-03-03 09:46:00,
2013-03-03 04:47:00,20.6,19.1,29.68,WNW,287,5.0,8.0,94,0.00,,,0.00,Wunderground v.1.15,2013-03-03 09:47:00,
2013-03-03 04:50:00,20.6,19.1,29.68,WNW,294,7.0,8.0,94,0.00,,,0.00,Wunderground v.1.15,2013-03-03 09:50:00,
2013-03-03 04:51:00,20.6,19.1,29.68,WSW,256,5.0,6.0,94,0.00,,,0.00,Wunderground v.1.15,2013-03-03 09:51:00,
2013-03-03 04:52:00,20.6,19.1,29.68,West,278,5.0,7.0,94,0.00,,,0.00,Wunderground v.1.15,2013-03-03 09:52:00,
2013-03-03 04:55:00,20.6,19.1,29.68,NW,307,4.0,8.0,94,0.00,,,0.00,Wunderground v.1.15,2013-03-03 09:55:00,
2013-03-03 04:56:00,20.6,19.1,29.68,NW,309,2.0,8.0,94,0.00,,,0.00,Wunderground v.1.15,2013-03-03 09:56:00,
2013-03-03 04:57:00,20.6,19.1,29.69,West,278,2.0,8.0,94,0.00,,,0.00,Wunderground v.1.15,2013-03-03 09:57:00,
2013-03-03 05:00:00,20.6,19.1,29.69,West,264,4.0,8.0,94,0.00,,,0.00,Wunderground v.1.15,2013-03-03 10:00:00,
2013-03-03 05:01:00,20.6,19.1,29.68,WNW,285,3.0,6.0,94,0.00,,,0.00,Wunderground v.1.15,2013-03-03 10:01:00,
2013-03-03 05:02:00,20.6,19.1,29.69,WNW,297,4.0,8.0,94,0.00,,,0.00,Wunderground v.1.15,2013-03-03 10:02:00,
2013-03-03 05:05:00,20.6,19.1,29.69,NW,306,3.0,8.0,94,0.00,,,0.00,Wunderground v.1.15,2013-03-03 10:05:00,
2013-03-03 05:06:00,20.6,19.1,29.69,WNW,287,8.0,8.0,94,0.00,,,0.00,Wunderground v.1.15,2013-03-03 10:06:00,
2013-03-03 05:07:00,20.6,19.1,29.69,WNW,300,4.0,8.0,94,0.00,,,0.00,Wunderground v.1.15,2013-03-03 10:07:00,
2013-03-03 05:10:00,20.6,19.1,29.68,WNW,288,6.0,6.0,94,0.00,,,0.00,Wunderground v.1.15,2013-03-03 10:10:00,
2013-03-03 05:11:00,20.6,19.1,29.69,WNW,300,6.0,7.0,94,0.00,,,0.00,Wunderground v.1.15,2013-03-03 10:11:00,
2013-03-03 05:13:00,20.6,19.1,29.69,West,278,2.0,7.0,94,0.00,,,0.00,Wunderground v.1.15,2013-03-03 10:13:00,
2013-03-03 05:15:00,20.6,19.1,29.69,WNW,284,5.0,7.0,94,0.00,,,0.00,Wunderground v.1.15,2013-03-03 10:15:00,
2013-03-03 05:16:00,20.6,19.1,29.69,West,276,5.0,7.0,94,0.00,,,0.00,Wunderground v.1.15,2013-03-03 10:16:00,
2013-03-03 05:18:00,20.6,19.1,29.69,West,275,5.0,7.0,94,0.00,,,0.00,Wunderground v.1.15,2013-03-03 10:18:00,
2013-03-03 05:20:00,20.6,19.1,29.69,WNW,293,6.0,7.0,94,0.00,,,0.00,Wunderground v.1.15,2013-03-03 10:20:00,
2013-03-03 05:21:00,20.6,19.1,29.69,WSW,256,6.0,7.0,94,0.00,,,0.00,Wunderground v.1.15,2013-03-03 10:21:00,
2013-03-03 05:23:00,20.6,19.1,29.69,WSW,252,5.0,7.0,94,0.00,,,0.00,Wunderground v.1.15,2013-03-03 10:23:00,
2013-03-03 05:26:00,20.6,19.1,29.69,West,277,3.0,7.0,94,0.00,,,0.00,Wunderground v.1.15,2013-03-03 10:26:00,
2013-03-03 05:28:00,20.6,19.1,29.69,West,269,5.0,7.0,94,0.00,,,0.00,Wunderground v.1.15,2013-03-03 10:28:00,
2013-03-03 05:31:00,20.6,19.1,29.69,SW,229,3.0,5.0,94,0.00,,,0.00,Wunderground v.1.15,2013-03-03 10:31:00,
2013-03-03 05:32:00,20.6,19.1,29.69,West,281,3.0,5.0,94,0.00,,,0.00,Wunderground v.1.15,2013-03-03 10:32:00,
2013-03-03 05:33:00,20.6,19.1,29.69,WNW,294,3.0,5.0,94,0.00,,,0.00,Wunderground v.1.15,2013-03-03 10:33:00,
2013-03-03 05:36:00,20.6,19.1,29.69,WNW,296,4.0,7.0,94,0.00,,,0.00,Wunderground v.1.15,2013-03-03 10:36:00,
2013-03-03 05:37:00,20.7,19.2,29.69,West,271,4.0,7.0,94,0.00,,,0.00,Wunderground v.1.15,2013-03-03 10:37:00,
2013-03-03 05:38:00,20.6,19.1,29.69,West,269,3.0,7.0,94,0.00,,,0.00,Wunderground v.1.15,2013-03-03 10:38:00,
2013-03-03 05:41:00,20.7,19.2,29.69,WNW,288,3.0,7.0,94,0.00,,,0.00,Wunderground v.1.15,2013-03-03 10:41:00,
2013-03-03 05:42:00,20.7,19.2,29.69,NW,308,4.0,7.0,94,0.00,,,0.00,Wunderground v.1.15,2013-03-03 10:42:00,
2013-03-03 05:43:00,20.7,19.2,29.69,NW,306,2.0,7.0,94,0.00,,,0.00,Wunderground v.1.15,2013-03-03 10:43:00,
2013-03-03 05:46:00,20.7,19.2,29.69,WNW,291,3.0,7.0,94,0.00,,,0.00,Wunderground v.1.15,2013-03-03 10:46:00,
2013-03-03 05:47:00,20.7,19.2,29.69,NW,309,2.0,7.0,94,0.00,,,0.00,Wunderground v.1.15,2013-03-03 10:47:00,
2013-03-03 05:48:00,20.7,19.2,29.69,West,263,3.0,7.0,94,0.00,,,0.00,Wunderground v.1.15,2013-03-03 10:48:00,
2013-03-03 05:51:00,20.7,19.2,29.69,WNW,288,3.0,4.0,94,0.00,,,0.00,Wunderground v.1.15,2013-03-03 10:51:00,
2013-03-03 05:52:00,20.7,19.2,29.69,WNW,285,3.0,4.0,94,0.00,,,0.00,Wunderground v.1.15,2013-03-03 10:52:00,
2013-03-03 05:53:00,20.7,19.2,29.69,WNW,301,4.0,5.0,94,0.00,,,0.00,Wunderground v.1.15,2013-03-03 10:53:00,
2013-03-03 05:56:00,20.7,19.2,29.69,West,274,3.0,7.0,94,0.00,,,0.00,Wunderground v.1.15,2013-03-03 10:56:00,
2013-03-03 05:57:00,20.7,19.2,29.69,West,276,3.0,7.0,94,0.00,,,0.00,Wunderground v.1.15,2013-03-03 10:57:00,
2013-03-03 05:58:00,20.7,19.2,29.69,West,271,4.0,7.0,94,0.00,,,0.00,Wunderground v.1.15,2013-03-03 10:58:00,
2013-03-03 06:01:00,20.7,19.2,29.69,WNW,284,3.0,5.0,94,0.00,,,0.00,Wunderground v.1.15,2013-03-03 11:01:00,
2013-03-03 06:02:00,20.7,19.2,29.69,WNW,292,3.0,5.0,94,0.00,,,0.00,Wunderground v.1.15,2013-03-03 11:02:00,
2013-03-03 06:03:00,20.7,19.2,29.69,WNW,301,3.0,5.0,94,0.00,,,0.00,Wunderground v.1.15,2013-03-03 11:03:00,
2013-03-03 06:06:00,20.7,19.2,29.69,West,264,4.0,7.0,94,0.00,,,0.00,Wunderground v.1.15,2013-03-03 11:06:00,
2013-03-03 06:07:00,20.7,19.2,29.69,WNW,285,5.0,8.0,94,0.00,,,0.00,Wunderground v.1.15,2013-03-03 11:07:00,
2013-03-03 06:08:00,20.7,19.2,29.69,West,269,4.0,8.0,94,0.00,,,0.00,Wunderground v.1.15,2013-03-03 11:08:00,
2013-03-03 06:12:00,20.7,19.2,29.69,West,269,3.0,7.0,94,0.00,,,0.00,Wunderground v.1.15,2013-03-03 11:12:00,
2013-03-03 06:13:00,20.7,19.2,29.69,WNW,296,3.0,7.0,94,0.00,,,0.00,Wunderground v.1.15,2013-03-03 11:13:00,
2013-03-03 06:17:00,20.7,19.2,29.69,NW,304,4.0,7.0,94,0.00,,,0.00,Wunderground v.1.15,2013-03-03 11:17:00,
2013-03-03 06:18:00,20.7,19.2,29.69,West,262,2.0,7.0,94,0.00,,,0.00,Wunderground v.1.15,2013-03-03 11:18:00,
2013-03-03 06:22:00,20.7,19.2,29.69,NW,307,4.0,5.0,94,0.00,,,0.00,Wunderground v.1.15,2013-03-03 11:22:00,
2013-03-03 06:23:00,20.7,19.2,29.70,West,281,4.0,6.0,94,0.00,,,0.00,Wunderground v.1.15,2013-03-03 11:23:00,
2013-03-03 06:24:00,20.7,19.2,29.70,WNW,291,3.0,6.0,94,0.00,,,0.00,Wunderground v.1.15,2013-03-03 11:24:00,
2013-03-03 06:27:00,20.6,19.1,29.70,West,276,2.0,6.0,94,0.00,,,0.00,Wunderground v.1.15,2013-03-03 11:27:00,
2013-03-03 06:28:00,20.6,19.1,29.69,WNW,297,4.0,7.0,94,0.00,,,0.00,Wunderground v.1.15,2013-03-03 11:28:00,
2013-03-03 06:29:00,20.6,19.1,29.70,WNW,294,4.0,7.0,94,0.00,,,0.00,Wunderground v.1.15,2013-03-03 11:29:00,
2013-03-03 06:32:00,20.6,19.1,29.70,West,266,4.0,6.0,94,0.00,,,0.00,Wunderground v.1.15,2013-03-03 11:32:00,
2013-03-03 06:33:00,20.6,19.1,29.70,West,276,4.0,7.0,94,0.00,,,0.00,Wunderground v.1.15,2013-03-03 11:33:00,
2013-03-03 06:34:00,20.6,19.1,29.70,West,280,3.0,7.0,94,0.00,,,0.00,Wunderground v.1.15,2013-03-03 11:34:00,
2013-03-03 06:37:00,20.6,19.1,29.70,West,274,5.0,7.0,94,0.00,,,0.00,Wunderground v.1.15,2013-03-03 11:37:00,
2013-03-03 06:38:00,20.6,19.1,29.70,West,271,3.0,7.0,94,0.00,,,0.00,Wunderground v.1.15,2013-03-03 11:38:00,
2013-03-03 06:39:00,20.6,19.1,29.70,WNW,291,3.0,7.0,94,0.00,,,0.00,Wunderground v.1.15,2013-03-03 11:39:00,
2013-03-03 06:42:00,20.7,19.2,29.70,West,273,5.0,7.0,94,0.00,,,0.00,Wunderground v.1.15,2013-03-03 11:42:00,
2013-03-03 06:43:00,20.6,19.1,29.70,West,264,5.0,7.0,94,0.00,,,0.00,Wunderground v.1.15,2013-03-03 11:43:00,
2013-03-03 06:44:00,20.6,19.1,29.70,WNW,283,5.0,7.0,94,0.00,,,0.00,Wunderground v.1.15,2013-03-03 11:44:00,
2013-03-03 06:47:00,20.6,19.1,29.69,West,264,5.0,8.0,94,0.00,,,0.00,Wunderground v.1.15,2013-03-03 11:47:00,
2013-03-03 06:48:00,20.6,19.1,29.70,West,281,3.0,8.0,94,0.00,,,0.00,Wunderground v.1.15,2013-03-03 11:48:00,
2013-03-03 06:49:00,20.6,19.1,29.70,West,264,4.0,8.0,94,0.00,,,0.00,Wunderground v.1.15,2013-03-03 11:49:00,
2013-03-03 06:52:00,20.6,19.1,29.70,West,273,6.0,6.0,94,0.00,,,0.00,Wunderground v.1.15,2013-03-03 11:52:00,
2013-03-03 06:53:00,20.7,19.2,29.70,West,277,6.0,6.0,94,0.00,,,0.00,Wunderground v.1.15,2013-03-03 11:53:00,
2013-03-03 06:54:00,20.7,19.2,29.70,West,279,5.0,6.0,94,0.00,,,0.00,Wunderground v.1.15,2013-03-03 11:54:00,
2013-03-03 06:57:00,20.7,19.2,29.70,WNW,297,3.0,7.0,94,0.00,,,0.00,Wunderground v.1.15,2013-03-03 11:57:00,
2013-03-03 06:59:00,20.7,19.2,29.70,West,269,2.0,7.0,94,0.00,,,0.00,Wunderground v.1.15,2013-03-03 11:59:00,
2013-03-03 07:03:00,20.7,19.2,29.70,West,263,4.0,6.0,94,0.00,,,0.00,Wunderground v.1.15,2013-03-03 12:03:00,
2013-03-03 07:04:00,20.8,19.3,29.70,WSW,253,4.0,6.0,94,0.00,,,0.00,Wunderground v.1.15,2013-03-03 12:04:00,
2013-03-03 07:08:00,20.8,19.3,29.70,WNW,283,4.0,7.0,94,0.00,,,0.00,Wunderground v.1.15,2013-03-03 12:08:00,
2013-03-03 07:09:00,20.8,19.3,29.70,WNW,293,5.0,7.0,94,0.00,,,0.00,Wunderground v.1.15,2013-03-03 12:09:00,
2013-03-03 07:13:00,20.8,19.3,29.70,WNW,297,6.0,7.0,94,0.00,,,0.00,Wunderground v.1.15,2013-03-03 12:13:00,
2013-03-03 07:14:00,20.8,19.3,29.70,West,280,4.0,7.0,94,0.00,,,0.00,Wunderground v.1.15,2013-03-03 12:14:00,
2013-03-03 07:18:00,20.8,19.3,29.70,WNW,294,4.0,8.0,94,0.00,,,0.00,Wunderground v.1.15,2013-03-03 12:18:00,
2013-03-03 07:19:00,20.8,19.3,29.70,West,273,3.0,8.0,94,0.00,,,0.00,Wunderground v.1.15,2013-03-03 12:19:00,
2013-03-03 07:23:00,20.8,19.3,29.70,WNW,290,6.0,8.0,94,0.00,,,0.00,Wunderground v.1.15,2013-03-03 12:23:00,
2013-03-03 07:24:00,20.8,19.3,29.70,West,264,3.0,8.0,94,0.00,,,0.00,Wunderground v.1.15,2013-03-03 12:24:00,
2013-03-03 07:29:00,20.9,19.4,29.70,West,274,2.0,8.0,94,0.00,,,0.00,Wunderground v.1.15,2013-03-03 12:29:00,
2013-03-03 07:30:00,20.9,19.4,29.70,West,275,6.0,8.0,94,0.00,,,0.00,Wunderground v.1.15,2013-03-03 12:30:00,
2013-03-03 07:34:00,20.9,19.4,29.70,West,278,4.0,6.0,94,0.00,,,0.00,Wunderground v.1.15,2013-03-03 12:34:00,
2013-03-03 07:35:00,20.9,19.4,29.70,WNW,291,4.0,6.0,94,0.00,,,0.00,Wunderground v.1.15,2013-03-03 12:35:00,
2013-03-03 07:39:00,21.0,19.5,29.70,West,280,5.0,8.0,94,0.00,,,0.00,Wunderground v.1.15,2013-03-03 12:39:00,
2013-03-03 07:40:00,21.0,19.5,29.70,WNW,300,3.0,4.0,94,0.00,,,0.00,Wunderground v.1.15,2013-03-03 12:40:00,
2013-03-03 07:44:00,21.0,19.5,29.70,West,266,4.0,6.0,94,0.00,,,0.00,Wunderground v.1.15,2013-03-03 12:44:00,
2013-03-03 07:45:00,21.0,19.5,29.71,West,263,4.0,6.0,94,0.00,,,0.00,Wunderground v.1.15,2013-03-03 12:45:00,
2013-03-03 07:49:00,21.0,19.5,29.70,WNW,298,3.0,8.0,94,0.00,,,0.00,Wunderground v.1.15,2013-03-03 12:49:00,
2013-03-03 07:50:00,21.0,19.5,29.70,NW,312,4.0,8.0,94,0.00,,,0.00,Wunderground v.1.15,2013-03-03 12:50:00,
2013-03-03 07:54:00,21.1,19.6,29.70,WNW,285,5.0,6.0,94,0.00,,,0.00,Wunderground v.1.15,2013-03-03 12:54:00,
2013-03-03 07:55:00,21.1,19.6,29.70,WNW,295,4.0,6.0,94,0.00,,,0.00,Wunderground v.1.15,2013-03-03 12:55:00,
2013-03-03 07:56:00,21.1,19.6,29.70,WNW,300,5.0,6.0,94,0.00,,,0.00,Wunderground v.1.15,2013-03-03 12:56:00,
2013-03-03 07:59:00,21.1,19.6,29.70,West,259,6.0,7.0,94,0.00,,,0.00,Wunderground v.1.15,2013-03-03 12:59:00,
2013-03-03 08:00:00,21.1,19.6,29.70,West,278,6.0,6.0,94,0.00,,,0.00,Wunderground v.1.15,2013-03-03 13:00:00,
2013-03-03 08:01:00,21.1,19.6,29.70,WNW,288,7.0,8.0,94,0.00,,,0.00,Wunderground v.1.15,2013-03-03 13:01:00,
2013-03-03 08:05:00,21.2,19.7,29.70,WNW,282,2.0,8.0,94,0.00,,,0.00,Wunderground v.1.15,2013-03-03 13:05:00,
2013-03-03 08:06:00,21.2,19.7,29.70,WNW,300,6.0,8.0,94,0.00,,,0.00,Wunderground v.1.15,2013-03-03 13:06:00,
2013-03-03 08:10:00,21.2,19.7,29.70,West,277,6.0,6.0,94,0.00,,,0.00,Wunderground v.1.15,2013-03-03 13:10:00,
2013-03-03 08:11:00,21.2,19.7,29.70,WNW,294,5.0,7.0,94,0.00,,,0.00,Wunderground v.1.15,2013-03-03 13:11:00,
2013-03-03 08:15:00,21.2,19.7,29.70,West,269,5.0,7.0,94,0.00,,,0.00,Wunderground v.1.15,2013-03-03 13:15:00,
2013-03-03 08:16:00,21.2,19.7,29.70,WNW,285,3.0,7.0,94,0.00,,,0.00,Wunderground v.1.15,2013-03-03 13:16:00,
2013-03-03 08:20:00,21.3,19.8,29.70,WNW,285,2.0,4.0,94,0.00,,,0.00,Wunderground v.1.15,2013-03-03 13:20:00,
2013-03-03 08:21:00,21.3,19.8,29.70,WNW,291,5.0,5.0,94,0.00,,,0.00,Wunderground v.1.15,2013-03-03 13:21:00,
2013-03-03 08:25:00,21.4,19.9,29.70,West,269,6.0,6.0,94,0.00,,,0.00,Wunderground v.1.15,2013-03-03 13:25:00,
2013-03-03 08:26:00,21.4,19.9,29.70,West,269,5.0,6.0,94,0.00,,,0.00,Wunderground v.1.15,2013-03-03 13:26:00,
2013-03-03 08:30:00,21.4,19.9,29.70,West,262,5.0,6.0,94,0.00,,,0.00,Wunderground v.1.15,2013-03-03 13:30:00,
2013-03-03 08:31:00,21.4,19.9,29.70,WSW,249,6.0,6.0,94,0.00,,,0.00,Wunderground v.1.15,2013-03-03 13:31:00,
2013-03-03 08:35:00,21.4,19.9,29.70,West,260,5.0,6.0,94,0.00,,,0.00,Wunderground v.1.15,2013-03-03 13:35:00,
2013-03-03 08:36:00,21.5,20.0,29.70,WSW,250,6.0,6.0,94,0.00,,,0.00,Wunderground v.1.15,2013-03-03 13:36:00,
2013-03-03 08:40:00,21.5,20.0,29.70,WNW,285,3.0,4.0,94,0.00,,,0.00,Wunderground v.1.15,2013-03-03 13:40:00,
2013-03-03 08:41:00,21.5,20.0,29.70,West,270,6.0,6.0,94,0.00,,,0.00,Wunderground v.1.15,2013-03-03 13:41:00,
2013-03-03 08:46:00,21.5,20.0,29.70,NW,307,3.0,6.0,94,0.00,,,0.00,Wunderground v.1.15,2013-03-03 13:46:00,
2013-03-03 08:47:00,21.6,20.1,29.70,WNW,288,3.0,6.0,94,0.00,,,0.00,Wunderground v.1.15,2013-03-03 13:47:00,
2013-03-03 08:51:00,21.6,20.1,29.70,West,264,4.0,5.0,94,0.00,,,0.00,Wunderground v.1.15,2013-03-03 13:51:00,
2013-03-03 08:52:00,21.6,20.1,29.70,West,280,4.0,7.0,94,0.00,,,0.00,Wunderground v.1.15,2013-03-03 13:52:00,
2013-03-03 08:56:00,21.6,20.1,29.69,West,278,3.0,7.0,94,0.00,,,0.00,Wunderground v.1.15,2013-03-03 13:56:00,
2013-03-03 08:57:00,21.6,20.1,29.69,WSW,255,3.0,7.0,94,0.00,,,0.00,Wunderground v.1.15,2013-03-03 13:57:00,
2013-03-03 09:01:00,21.7,20.2,29.69,West,274,6.0,7.0,94,0.00,,,0.00,Wunderground v.1.15,2013-03-03 14:01:00,
2013-03-03 09:02:00,21.7,20.2,29.69,WSW,253,6.0,7.0,94,0.00,,,0.00,Wunderground v.1.15,2013-03-03 14:02:00,
2013-03-03 09:06:00,21.7,20.2,29.69,NW,321,5.0,7.0,94,0.00,,,0.00,Wunderground v.1.15,2013-03-03 14:06:00,
2013-03-03 09:07:00,21.7,20.2,29.69,West,271,5.0,7.0,94,0.00,,,0.00,Wunderground v.1.15,2013-03-03 14:07:00,
2013-03-03 09:11:00,21.7,20.2,29.69,West,269,2.0,4.0,94,0.00,,,0.00,Wunderground v.1.15,2013-03-03 14:11:00,
2013-03-03 09:12:00,21.7,20.2,29.69,West,276,4.0,5.0,94,0.00,,,0.00,Wunderground v.1.15,2013-03-03 14:12:00,
2013-03-03 09:16:00,21.7,20.2,29.70,WNW,293,2.0,6.0,94,0.00,,,0.00,Wunderground v.1.15,2013-03-03 14:16:00,
2013-03-03 09:17:00,21.7,20.2,29.69,West,269,6.0,7.0,94,0.00,,,0.00,Wunderground v.1.15,2013-03-03 14:17:00,
2013-03-03 09:21:00,21.8,20.3,29.69,NW,313,4.0,5.0,94,0.00,,,0.00,Wunderground v.1.15,2013-03-03 14:21:00,
2013-03-03 09:22:00,21.8,20.3,29.69,WNW,296,3.0,5.0,94,0.00,,,0.00,Wunderground v.1.15,2013-03-03 14:22:00,
2013-03-03 09:23:00,21.8,20.3,29.69,WNW,291,4.0,5.0,94,0.00,,,0.00,Wunderground v.1.15,2013-03-03 14:23:00,
2013-03-03 09:26:00,21.9,20.4,29.69,West,263,4.0,6.0,94,0.00,,,0.00,Wunderground v.1.15,2013-03-03 14:26:00,
2013-03-03 09:27:00,21.9,20.4,29.69,West,276,4.0,6.0,94,0.00,,,0.00,Wunderground v.1.15,2013-03-03 14:27:00,
2013-03-03 09:28:00,21.9,20.4,29.69,West,262,6.0,6.0,94,0.00,,,0.00,Wunderground v.1.15,2013-03-03 14:28:00,
2013-03-03 09:31:00,21.9,20.4,29.69,WNW,300,4.0,6.0,94,0.00,,,0.00,Wunderground v.1.15,2013-03-03 14:31:00,
2013-03-03 09:32:00,22.0,20.5,29.69,WNW,295,3.0,6.0,94,0.00,,,0.00,Wunderground v.1.15,2013-03-03 14:32:00,
2013-03-03 09:33:00,22.0,20.5,29.69,West,269,3.0,6.0,94,0.00,,,0.00,Wunderground v.1.15,2013-03-03 14:33:00,
2013-03-03 09:36:00,22.1,20.6,29.69,WSW,253,4.0,6.0,94,0.00,,,0.00,Wunderground v.1.15,2013-03-03 14:36:00,
2013-03-03 09:37:00,22.1,20.6,29.69,West,262,6.0,6.0,94,0.00,,,0.00,Wunderground v.1.15,2013-03-03 14:37:00,
2013-03-03 09:38:00,22.1,20.6,29.69,WNW,293,6.0,8.0,94,0.00,,,0.00,Wunderground v.1.15,2013-03-03 14:38:00,
2013-03-03 09:41:00,22.1,20.6,29.69,WNW,283,5.0,7.0,94,0.00,,,0.00,Wunderground v.1.15,2013-03-03 14:41:00,
2013-03-03 09:42:00,22.1,20.6,29.69,WNW,290,2.0,7.0,94,0.00,,,0.00,Wunderground v.1.15,2013-03-03 14:42:00,
2013-03-03 09:43:00,22.1,20.6,29.69,West,280,4.0,7.0,94,0.00,,,0.00,Wunderground v.1.15,2013-03-03 14:43:00,
2013-03-03 09:46:00,22.3,20.8,29.68,WSW,242,7.0,7.0,94,0.00,,,0.00,Wunderground v.1.15,2013-03-03 14:46:00,
2013-03-03 09:47:00,22.3,20.8,29.68,West,262,7.0,7.0,94,0.00,,,0.00,Wunderground v.1.15,2013-03-03 14:47:00,
2013-03-03 09:48:00,22.3,20.8,29.68,West,262,5.0,7.0,94,0.00,,,0.00,Wunderground v.1.15,2013-03-03 14:48:00,
2013-03-03 09:52:00,22.4,20.9,29.68,West,267,5.0,6.0,94,0.00,,,0.00,Wunderground v.1.15,2013-03-03 14:52:00,
2013-03-03 09:53:00,22.4,20.9,29.68,NW,304,4.0,6.0,94,0.00,,,0.00,Wunderground v.1.15,2013-03-03 14:53:00,
2013-03-03 09:54:00,22.5,21.0,29.68,WNW,288,3.0,6.0,94,0.00,,,0.00,Wunderground v.1.15,2013-03-03 14:54:00,
2013-03-03 09:57:00,22.7,21.2,29.68,WNW,282,4.0,6.0,94,0.00,,,0.00,Wunderground v.1.15,2013-03-03 14:57:00,
2013-03-03 09:58:00,22.7,21.2,29.68,WSW,253,5.0,6.0,94,0.00,,,0.00,Wunderground v.1.15,2013-03-03 14:58:00,
2013-03-03 09:59:00,22.7,21.2,29.68,West,274,6.0,6.0,94,0.00,,,0.00,Wunderground v.1.15,2013-03-03 14:59:00,
2013-03-03 10:02:00,22.7,21.2,29.68,West,264,8.0,8.0,94,0.00,,,0.00,Wunderground v.1.15,2013-03-03 15:02:00,
2013-03-03 10:03:00,22.7,21.2,29.68,West,278,7.0,8.0,94,0.00,,,0.00,Wunderground v.1.15,2013-03-03 15:03:00,
2013-03-03 10:04:00,22.7,21.2,29.68,NW,304,4.0,8.0,94,0.00,,,0.00,Wunderground v.1.15,2013-03-03 15:04:00,
2013-03-03 10:07:00,22.8,21.3,29.68,West,273,2.0,8.0,94,0.00,,,0.00,Wunderground v.1.15,2013-03-03 15:07:00,
2013-03-03 10:08:00,22.9,21.4,29.68,NW,312,1.0,8.0,94,0.00,,,0.00,Wunderground v.1.15,2013-03-03 15:08:00,
2013-03-03 10:09:00,23.0,21.5,29.68,West,270,2.0,8.0,94,0.00,,,0.00,Wunderground v.1.15,2013-03-03 15:09:00,
2013-03-03 10:12:00,23.0,21.5,29.68,West,264,5.0,8.0,94,0.00,,,0.00,Wunderground v.1.15,2013-03-03 15:12:00,
2013-03-03 10:13:00,23.1,21.6,29.68,West,262,5.0,8.0,94,0.00,,,0.00,Wunderground v.1.15,2013-03-03 15:13:00,
2013-03-03 10:14:00,23.1,21.6,29.68,WNW,295,5.0,8.0,94,0.00,,,0.00,Wunderground v.1.15,2013-03-03 15:14:00,
2013-03-03 10:17:00,23.2,21.7,29.68,West,269,4.0,8.0,94,0.00,,,0.00,Wunderground v.1.15,2013-03-03 15:17:00,
2013-03-03 10:18:00,23.2,21.7,29.68,WNW,286,4.0,8.0,94,0.00,,,0.00,Wunderground v.1.15,2013-03-03 15:18:00,
2013-03-03 10:19:00,23.3,21.8,29.68,WNW,291,3.0,8.0,94,0.00,,,0.00,Wunderground v.1.15,2013-03-03 15:19:00,
2013-03-03 10:22:00,23.4,21.9,29.68,West,274,4.0,5.0,94,0.00,,,0.00,Wunderground v.1.15,2013-03-03 15:22:00,
2013-03-03 10:23:00,23.4,21.9,29.68,WNW,295,7.0,7.0,94,0.00,,,0.00,Wunderground v.1.15,2013-03-03 15:23:00,
2013-03-03 10:24:00,23.5,22.0,29.68,NNW,335,3.0,7.0,94,0.00,,,0.00,Wunderground v.1.15,2013-03-03 15:24:00,
2013-03-03 10:27:00,23.6,22.1,29.67,West,280,5.0,7.0,94,0.00,,,0.00,Wunderground v.1.15,2013-03-03 15:27:00,
2013-03-03 10:28:00,23.6,22.1,29.67,WNW,291,3.0,7.0,94,0.00,,,0.00,Wunderground v.1.15,2013-03-03 15:28:00,
2013-03-03 10:29:00,23.6,22.1,29.67,WNW,290,4.0,7.0,94,0.00,,,0.00,Wunderground v.1.15,2013-03-03 15:29:00,
2013-03-03 10:32:00,23.7,22.2,29.67,WNW,293,3.0,6.0,94,0.00,,,0.00,Wunderground v.1.15,2013-03-03 15:32:00,
2013-03-03 10:33:00,23.7,22.2,29.67,WNW,300,3.0,6.0,94,0.00,,,0.00,Wunderground v.1.15,2013-03-03 15:33:00,
2013-03-03 10:34:00,23.7,22.2,29.67,NW,312,3.0,6.0,94,0.00,,,0.00,Wunderground v.1.15,2013-03-03 15:34:00,
2013-03-03 10:37:00,23.7,22.2,29.67,WNW,295,3.0,6.0,94,0.00,,,0.00,Wunderground v.1.15,2013-03-03 15:37:00,
2013-03-03 10:38:00,23.7,22.2,29.67,WNW,285,2.0,6.0,94,0.00,,,0.00,Wunderground v.1.15,2013-03-03 15:38:00,
2013-03-03 10:39:00,23.7,22.2,29.67,WNW,300,8.0,9.0,94,0.00,,,0.00,Wunderground v.1.15,2013-03-03 15:39:00,
2013-03-03 10:40:00,23.7,22.2,29.67,NW,325,3.0,4.0,94,0.00,,,0.00,Wunderground v.1.15,2013-03-03 15:40:00,
2013-03-03 10:42:00,23.8,22.3,29.67,NNW,335,4.0,5.0,94,0.00,,,0.00,Wunderground v.1.15,2013-03-03 15:42:00,
2013-03-03 10:43:00,23.8,22.3,29.67,WNW,282,2.0,5.0,94,0.00,,,0.00,Wunderground v.1.15,2013-03-03 15:43:00,
2013-03-03 10:44:00,23.8,22.3,29.67,West,276,2.0,5.0,94,0.00,,,0.00,Wunderground v.1.15,2013-03-03 15:44:00,
2013-03-03 10:45:00,23.9,22.4,29.67,WNW,299,3.0,5.0,94,0.00,,,0.00,Wunderground v.1.15,2013-03-03 15:45:00,
2013-03-03 10:48:00,24.0,22.5,29.67,WNW,302,6.0,6.0,94,0.00,,,0.00,Wunderground v.1.15,2013-03-03 15:48:00,
2013-03-03 10:49:00,24.0,22.5,29.67,NW,323,5.0,6.0,94,0.00,,,0.00,Wunderground v.1.15,2013-03-03 15:49:00,
2013-03-03 10:50:00,24.0,22.5,29.67,WNW,288,4.0,5.0,94,0.00,,,0.00,Wunderground v.1.15,2013-03-03 15:50:00,
2013-03-03 10:53:00,24.0,22.5,29.67,WNW,290,6.0,7.0,94,0.00,,,0.00,Wunderground v.1.15,2013-03-03 15:53:00,
2013-03-03 10:55:00,24.1,22.4,29.67,WNW,295,6.0,7.0,93,0.00,,,0.00,Wunderground v.1.15,2013-03-03 15:55:00,
2013-03-03 10:58:00,24.2,22.7,29.67,West,277,2.0,8.0,94,0.00,,,0.00,Wunderground v.1.15,2013-03-03 15:58:00,
2013-03-03 11:00:00,24.3,22.8,29.67,West,276,3.0,4.0,94,0.00,,,0.00,Wunderground v.1.15,2013-03-03 16:00:00,
2013-03-03 11:03:00,24.5,23.0,29.67,WNW,299,3.0,5.0,94,0.00,,,0.00,Wunderground v.1.15,2013-03-03 16:03:00,
2013-03-03 11:05:00,24.6,23.1,29.67,WNW,290,5.0,5.0,94,0.00,,,0.00,Wunderground v.1.15,2013-03-03 16:05:00,
2013-03-03 11:06:00,24.6,23.1,29.67,WNW,285,4.0,5.0,94,0.00,,,0.00,Wunderground v.1.15,2013-03-03 16:06:00,
2013-03-03 11:08:00,24.6,23.1,29.67,WNW,291,4.0,5.0,94,0.00,,,0.00,Wunderground v.1.15,2013-03-03 16:08:00,
2013-03-03 11:10:00,24.7,23.2,29.67,WNW,288,3.0,4.0,94,0.00,,,0.00,Wunderground v.1.15,2013-03-03 16:10:00,
2013-03-03 11:11:00,24.7,23.2,29.67,NW,305,5.0,6.0,94,0.00,,,0.00,Wunderground v.1.15,2013-03-03 16:11:00,
2013-03-03 11:13:00,24.8,23.3,29.67,West,281,6.0,6.0,94,0.00,,,0.00,Wunderground v.1.15,2013-03-03 16:13:00,
2013-03-03 11:15:00,24.8,23.3,29.67,WSW,248,7.0,8.0,94,0.00,,,0.00,Wunderground v.1.15,2013-03-03 16:15:00,
2013-03-03 11:16:00,24.8,23.3,29.67,NW,308,5.0,8.0,94,0.00,,,0.00,Wunderground v.1.15,2013-03-03 16:16:00,
2013-03-03 11:18:00,24.9,23.4,29.67,West,281,3.0,8.0,94,0.00,,,0.00,Wunderground v.1.15,2013-03-03 16:18:00,
2013-03-03 11:21:00,25.0,23.5,29.67,WNW,301,8.0,9.0,94,0.00,,,0.00,Wunderground v.1.15,2013-03-03 16:21:00,
2013-03-03 11:23:00,25.0,23.5,29.67,NW,323,3.0,11.0,94,0.00,,,0.00,Wunderground v.1.15,2013-03-03 16:23:00,
2013-03-03 11:24:00,25.0,23.5,29.67,West,276,6.0,11.0,94,0.00,,,0.00,Wunderground v.1.15,2013-03-03 16:24:00,
2013-03-03 11:26:00,25.1,23.6,29.67,WNW,287,4.0,11.0,94,0.00,,,0.00,Wunderground v.1.15,2013-03-03 16:26:00,
2013-03-03 11:28:00,25.2,23.7,29.67,West,280,6.0,11.0,94,0.00,,,0.00,Wunderground v.1.15,2013-03-03 16:28:00,
2013-03-03 11:29:00,25.1,23.6,29.67,West,264,5.0,11.0,94,0.00,,,0.00,Wunderground v.1.15,2013-03-03 16:29:00,
2013-03-03 11:31:00,25.1,23.4,29.67,NNW,335,7.0,10.0,93,0.00,,,0.00,Wunderground v.1.15,2013-03-03 16:31:00,
2013-03-03 11:33:00,25.2,23.5,29.67,WNW,284,6.0,10.0,93,0.00,,,0.00,Wunderground v.1.15,2013-03-03 16:33:00,
2013-03-03 11:34:00,25.3,23.8,29.67,West,272,6.0,10.0,94,0.00,,,0.00,Wunderground v.1.15,2013-03-03 16:34:00,
2013-03-03 11:36:00,25.3,23.6,29.67,WSW,250,6.0,10.0,93,0.00,,,0.00,Wunderground v.1.15,2013-03-03 16:36:00,
2013-03-03 11:38:00,25.3,23.6,29.67,NW,307,5.0,10.0,93,0.00,,,0.00,Wunderground v.1.15,2013-03-03 16:38:00,
2013-03-03 11:39:00,25.4,23.7,29.67,WNW,284,7.0,10.0,93,0.00,,,0.00,Wunderground v.1.15,2013-03-03 16:39:00,
2013-03-03 11:41:00,25.4,23.7,29.67,WNW,290,6.0,9.0,93,0.00,,,0.00,Wunderground v.1.15,2013-03-03 16:41:00,
2013-03-03 11:42:00,25.4,23.7,29.67,West,276,4.0,9.0,93,0.00,,,0.00,Wunderground v.1.15,2013-03-03 16:42:00,
2013-03-03 11:43:00,25.5,23.8,29.67,NW,312,8.0,11.0,93,0.00,,,0.00,Wunderground v.1.15,2013-03-03 16:43:00,
2013-03-03 11:44:00,25.5,23.8,29.67,WNW,303,7.0,11.0,93,0.00,,,0.00,Wunderground v.1.15,2013-03-03 16:44:00,
2013-03-03 11:47:00,25.6,23.9,29.67,NW,304,6.0,11.0,93,0.00,,,0.00,Wunderground v.1.15,2013-03-03 16:47:00,
2013-03-03 11:48:00,25.7,24.0,29.67,NW,315,5.0,11.0,93,0.00,,,0.00,Wunderground v.1.15,2013-03-03 16:48:00,
2013-03-03 11:49:00,25.7,24.0,29.67,NW,316,7.0,11.0,93,0.00,,,0.00,Wunderground v.1.15,2013-03-03 16:49:00,
2013-03-03 11:52:00,25.8,23.8,29.67,WNW,291,9.0,9.0,92,0.00,,,0.00,Wunderground v.1.15,2013-03-03 16:52:00,
2013-03-03 11:53:00,25.8,23.8,29.67,NNW,329,8.0,9.0,92,0.00,,,0.00,Wunderground v.1.15,2013-03-03 16:53:00,
2013-03-03 11:54:00,25.8,23.8,29.67,NW,306,9.0,9.0,92,0.00,,,0.00,Wunderground v.1.15,2013-03-03 16:54:00,
2013-03-03 11:57:00,26.0,24.0,29.67,West,281,4.0,9.0,92,0.00,,,0.00,Wunderground v.1.15,2013-03-03 16:57:00,
2013-03-03 11:58:00,26.1,24.1,29.67,NW,326,5.0,9.0,92,0.00,,,0.00,Wunderground v.1.15,2013-03-03 16:58:00,
2013-03-03 11:59:00,26.1,24.1,29.67,NW,309,4.0,9.0,92,0.00,,,0.00,Wunderground v.1.15,2013-03-03 16:59:00,
2013-03-03 12:02:00,26.2,24.2,29.67,WNW,300,8.0,9.0,92,0.00,,,0.00,Wunderground v.1.15,2013-03-03 17:02:00,
2013-03-03 12:03:00,26.2,23.9,29.66,NW,309,7.0,9.0,91,0.00,,,0.00,Wunderground v.1.15,2013-03-03 17:03:00,
2013-03-03 12:04:00,26.2,23.9,29.66,WSW,256,7.0,9.0,91,0.00,,,0.00,Wunderground v.1.15,2013-03-03 17:04:00,
2013-03-03 12:07:00,26.3,24.0,29.67,West,270,5.0,9.0,91,0.00,,,0.00,Wunderground v.1.15,2013-03-03 17:07:00,
2013-03-03 12:08:00,26.3,24.0,29.66,WNW,300,8.0,10.0,91,0.00,,,0.00,Wunderground v.1.15,2013-03-03 17:08:00,
2013-03-03 12:09:00,26.3,24.0,29.66,NW,318,7.0,7.0,91,0.00,,,0.00,Wunderground v.1.15,2013-03-03 17:09:00,
2013-03-03 12:13:00,26.5,24.2,29.66,NW,304,5.0,9.0,91,0.00,,,0.00,Wunderground v.1.15,2013-03-03 17:13:00,
2013-03-03 12:14:00,26.5,24.2,29.67,West,272,4.0,9.0,91,0.00,,,0.00,Wunderground v.1.15,2013-03-03 17:14:00,
2013-03-03 12:18:00,26.6,24.3,29.66,WNW,298,5.0,9.0,91,0.00,,,0.00,Wunderground v.1.15,2013-03-03 17:18:00,
2013-03-03 12:20:00,26.7,24.4,29.66,WNW,288,5.0,7.0,91,0.00,,,0.00,Wunderground v.1.15,2013-03-03 17:20:00,
2013-03-03 12:23:00,26.9,24.6,29.66,NW,321,6.0,7.0,91,0.00,,,0.00,Wunderground v.1.15,2013-03-03 17:23:00,
2013-03-03 12:24:00,27.0,24.7,29.66,WNW,299,2.0,7.0,91,0.00,,,0.00,Wunderground v.1.15,2013-03-03 17:24:00,
2013-03-03 12:25:00,27.0,24.7,29.66,NW,308,3.0,7.0,91,0.00,,,0.00,Wunderground v.1.15,2013-03-03 17:25:00,
2013-03-03 12:28:00,27.0,24.5,29.66,West,280,4.0,7.0,90,0.00,,,0.00,Wunderground v.1.15,2013-03-03 17:28:00,
2013-03-03 12:29:00,27.0,24.5,29.66,WNW,301,2.0,7.0,90,0.00,,,0.00,Wunderground v.1.15,2013-03-03 17:29:00,
2013-03-03 12:30:00,27.0,24.5,29.66,West,269,6.0,7.0,90,0.00,,,0.00,Wunderground v.1.15,2013-03-03 17:30:00,
2013-03-03 12:33:00,27.1,24.6,29.66,WNW,299,5.0,9.0,90,0.00,,,0.00,Wunderground v.1.15,2013-03-03 17:33:00,
2013-03-03 12:34:00,27.1,24.6,29.66,NW,308,7.0,9.0,90,0.00,,,0.00,Wunderground v.1.15,2013-03-03 17:34:00,
2013-03-03 12:35:00,27.1,24.6,29.66,West,271,8.0,9.0,90,0.00,,,0.00,Wunderground v.1.15,2013-03-03 17:35:00,
2013-03-03 12:38:00,27.1,24.6,29.65,West,276,5.0,9.0,90,0.00,,,0.00,Wunderground v.1.15,2013-03-03 17:38:00,
2013-03-03 12:39:00,27.2,24.7,29.65,West,263,6.0,9.0,90,0.00,,,0.00,Wunderground v.1.15,2013-03-03 17:39:00,
2013-03-03 12:40:00,27.2,24.7,29.65,WSW,257,6.0,8.0,90,0.00,,,0.00,Wunderground v.1.15,2013-03-03 17:40:00,
2013-03-03 12:43:00,27.2,24.7,29.65,West,260,5.0,8.0,90,0.00,,,0.00,Wunderground v.1.15,2013-03-03 17:43:00,
2013-03-03 12:44:00,27.3,24.8,29.65,West,264,4.0,8.0,90,0.00,,,0.00,Wunderground v.1.15,2013-03-03 17:44:00,
2013-03-03 12:45:00,27.3,24.8,29.65,WSW,238,6.0,8.0,90,0.00,,,0.00,Wunderground v.1.15,2013-03-03 17:45:00,
2013-03-03 12:48:00,27.4,24.9,29.65,West,276,6.0,9.0,90,0.00,,,0.00,Wunderground v.1.15,2013-03-03 17:48:00,
2013-03-03 12:50:00,27.4,24.9,29.65,NW,311,4.0,6.0,90,0.00,,,0.00,Wunderground v.1.15,2013-03-03 17:50:00,
2013-03-03 12:51:00,27.4,24.9,29.65,West,274,8.0,9.0,90,0.00,,,0.00,Wunderground v.1.15,2013-03-03 17:51:00,
2013-03-03 12:53:00,27.3,24.5,29.65,WNW,293,7.0,10.0,89,0.00,,,0.00,Wunderground v.1.15,2013-03-03 17:53:00,
2013-03-03 12:54:00,27.3,24.5,29.65,WNW,285,7.0,10.0,89,0.00,,,0.00,Wunderground v.1.15,2013-03-03 17:54:00,
2013-03-03 12:55:00,27.3,24.5,29.65,WNW,286,6.0,10.0,89,0.00,,,0.00,Wunderground v.1.15,2013-03-03 17:55:00,
2013-03-03 12:56:00,27.3,24.5,29.65,NW,312,8.0,10.0,89,0.00,,,0.00,Wunderground v.1.15,2013-03-03 17:56:00,
2013-03-03 12:58:00,27.3,24.5,29.65,NW,315,5.0,10.0,89,0.00,,,0.00,Wunderground v.1.15,2013-03-03 17:58:00,
2013-03-03 12:59:00,27.3,24.5,29.65,NW,318,4.0,10.0,89,0.00,,,0.00,Wunderground v.1.15,2013-03-03 17:59:00,
2013-03-03 13:00:00,27.4,24.6,29.65,NNW,339,3.0,7.0,89,0.00,,,0.00,Wunderground v.1.15,2013-03-03 18:00:00,
2013-03-03 13:01:00,27.4,24.6,29.65,WNW,293,5.0,7.0,89,0.00,,,0.00,Wunderground v.1.15,2013-03-03 18:01:00,
2013-03-03 13:03:00,27.5,24.7,29.65,West,272,5.0,7.0,89,0.00,,,0.00,Wunderground v.1.15,2013-03-03 18:03:00,
2013-03-03 13:04:00,27.5,24.7,29.65,WNW,288,3.0,7.0,89,0.00,,,0.00,Wunderground v.1.15,2013-03-03 18:04:00,
2013-03-03 13:05:00,27.6,24.8,29.65,WNW,293,5.0,7.0,89,0.00,,,0.00,Wunderground v.1.15,2013-03-03 18:05:00,
2013-03-03 13:06:00,27.6,24.8,29.65,West,267,4.0,7.0,89,0.00,,,0.00,Wunderground v.1.15,2013-03-03 18:06:00,
2013-03-03 13:09:00,27.6,24.8,29.65,West,276,5.0,11.0,89,0.00,,,0.00,Wunderground v.1.15,2013-03-03 18:09:00,
2013-03-03 13:10:00,27.7,24.9,29.65,NW,323,6.0,7.0,89,0.00,,,0.00,Wunderground v.1.15,2013-03-03 18:10:00,
2013-03-03 13:11:00,27.7,24.9,29.65,NW,316,5.0,7.0,89,0.00,,,0.00,Wunderground v.1.15,2013-03-03 18:11:00,
2013-03-03 13:14:00,27.8,25.0,29.65,WNW,284,5.0,7.0,89,0.00,,,0.00,Wunderground v.1.15,2013-03-03 18:14:00,
2013-03-03 13:15:00,27.8,25.0,29.65,NW,319,3.0,7.0,89,0.00,,,0.00,Wunderground v.1.15,2013-03-03 18:15:00,
2013-03-03 13:16:00,27.9,25.1,29.65,NW,321,5.0,7.0,89,0.00,,,0.00,Wunderground v.1.15,2013-03-03 18:16:00,
2013-03-03 13:19:00,27.9,24.8,29.64,NW,315,6.0,9.0,88,0.00,,,0.00,Wunderground v.1.15,2013-03-03 18:19:00,
2013-03-03 13:20:00,27.9,24.8,29.64,WNW,282,6.0,9.0,88,0.00,,,0.00,Wunderground v.1.15,2013-03-03 18:20:00,
2013-03-03 13:21:00,27.9,24.8,29.64,NW,317,7.0,9.0,88,0.00,,,0.00,Wunderground v.1.15,2013-03-03 18:21:00,
2013-03-03 13:24:00,27.9,24.8,29.64,WNW,293,7.0,11.0,88,0.00,,,0.00,Wunderground v.1.15,2013-03-03 18:24:00,
2013-03-03 13:25:00,27.9,24.8,29.64,NNW,328,6.0,11.0,88,0.00,,,0.00,Wunderground v.1.15,2013-03-03 18:25:00,
2013-03-03 13:26:00,28.0,24.9,29.64,WNW,299,4.0,11.0,88,0.00,,,0.00,Wunderground v.1.15,2013-03-03 18:26:00,
2013-03-03 13:29:00,28.1,25.0,29.64,NNW,340,6.0,11.0,88,0.00,,,0.00,Wunderground v.1.15,2013-03-03 18:29:00,
2013-03-03 13:30:00,28.1,25.0,29.64,NW,326,6.0,8.0,88,0.00,,,0.00,Wunderground v.1.15,2013-03-03 18:30:00,
2013-03-03 13:31:00,28.1,25.0,29.64,NW,310,6.0,10.0,88,0.00,,,0.00,Wunderground v.1.15,2013-03-03 18:31:00,
2013-03-03 13:34:00,28.1,25.0,29.64,WNW,295,7.0,10.0,88,0.00,,,0.00,Wunderground v.1.15,2013-03-03 18:34:00,
2013-03-03 13:35:00,28.1,25.0,29.64,WNW,303,11.0,11.0,88,0.00,,,0.00,Wunderground v.1.15,2013-03-03 18:35:00,
2013-03-03 13:36:00,28.1,25.0,29.64,NW,306,9.0,11.0,88,0.00,,,0.00,Wunderground v.1.15,2013-03-03 18:36:00,
2013-03-03 13:39:00,28.0,25.2,29.64,WNW,298,7.0,11.0,89,0.00,,,0.00,Wunderground v.1.15,2013-03-03 18:39:00,
2013-03-03 13:40:00,28.0,25.2,29.64,WNW,284,4.0,12.0,89,0.00,,,0.00,Wunderground v.1.15,2013-03-03 18:40:00,
2013-03-03 13:41:00,27.9,25.1,29.64,WNW,298,5.0,14.0,89,0.00,,,0.00,Wunderground v.1.15,2013-03-03 18:41:00,
2013-03-03 13:44:00,27.8,25.0,29.64,WNW,300,9.0,14.0,89,0.00,,,0.00,Wunderground v.1.15,2013-03-03 18:44:00,
2013-03-03 13:45:00,27.8,25.0,29.64,NW,316,7.0,14.0,89,0.00,,,0.00,Wunderground v.1.15,2013-03-03 18:45:00,
2013-03-03 13:47:00,27.8,25.0,29.64,NW,314,8.0,14.0,89,0.00,,,0.00,Wunderground v.1.15,2013-03-03 18:47:00,
2013-03-03 13:49:00,27.8,25.0,29.64,NNW,332,8.0,8.0,89,0.00,,,0.00,Wunderground v.1.15,2013-03-03 18:49:00,
2013-03-03 13:50:00,27.8,25.0,29.64,West,276,8.0,10.0,89,0.00,,,0.00,Wunderground v.1.15,2013-03-03 18:50:00,
2013-03-03 13:52:00,27.8,25.0,29.64,WNW,299,5.0,13.0,89,0.00,,,0.00,Wunderground v.1.15,2013-03-03 18:52:00,
2013-03-03 13:54:00,27.9,25.1,29.64,NW,321,7.0,13.0,89,0.00,,,0.00,Wunderground v.1.15,2013-03-03 18:54:00,
2013-03-03 13:55:00,27.9,24.8,29.64,NNW,333,8.0,13.0,88,0.00,,,0.00,Wunderground v.1.15,2013-03-03 18:55:00,
2013-03-03 13:57:00,27.9,24.8,29.64,WNW,293,7.0,13.0,88,0.00,,,0.00,Wunderground v.1.15,2013-03-03 18:57:00,
2013-03-03 13:59:00,28.1,25.0,29.64,WNW,297,5.0,7.0,88,0.00,,,0.00,Wunderground v.1.15,2013-03-03 18:59:00,
2013-03-03 14:00:00,28.1,25.0,29.64,West,267,7.0,7.0,88,0.00,,,0.00,Wunderground v.1.15,2013-03-03 19:00:00,
2013-03-03 14:01:00,28.1,25.0,29.64,West,278,8.0,8.0,88,0.00,,,0.00,Wunderground v.1.15,2013-03-03 19:01:00,
2013-03-03 14:02:00,28.1,24.7,29.64,WNW,299,9.0,11.0,87,0.00,,,0.00,Wunderground v.1.15,2013-03-03 19:02:00,
2013-03-03 14:04:00,28.3,24.9,29.64,WNW,302,8.0,11.0,87,0.00,,,0.00,Wunderground v.1.15,2013-03-03 19:04:00,
2013-03-03 14:05:00,28.4,25.3,29.64,NNW,333,4.0,11.0,88,0.00,,,0.00,Wunderground v.1.15,2013-03-03 19:05:00,
2013-03-03 14:06:00,28.5,25.1,29.64,NNW,341,9.0,11.0,87,0.00,,,0.00,Wunderground v.1.15,2013-03-03 19:06:00,
2013-03-03 14:07:00,28.5,24.8,29.64,WNW,283,5.0,11.0,86,0.00,,,0.00,Wunderground v.1.15,2013-03-03 19:07:00,
2013-03-03 14:10:00,28.6,24.9,29.64,WNW,297,4.0,6.0,86,0.00,,,0.00,Wunderground v.1.15,2013-03-03 19:10:00,
2013-03-03 14:11:00,28.6,24.9,29.64,West,281,6.0,6.0,86,0.00,,,0.00,Wunderground v.1.15,2013-03-03 19:11:00,
2013-03-03 14:12:00,28.7,25.0,29.64,NW,309,4.0,8.0,86,0.00,,,0.00,Wunderground v.1.15,2013-03-03 19:12:00,
2013-03-03 14:15:00,28.8,25.1,29.64,West,272,5.0,8.0,86,0.00,,,0.00,Wunderground v.1.15,2013-03-03 19:15:00,
2013-03-03 14:16:00,28.8,25.1,29.64,WNW,287,3.0,8.0,86,0.00,,,0.00,Wunderground v.1.15,2013-03-03 19:16:00,
2013-03-03 14:17:00,28.9,25.2,29.64,NW,308,5.0,8.0,86,0.00,,,0.00,Wunderground v.1.15,2013-03-03 19:17:00,
2013-03-03 14:20:00,29.0,25.3,29.64,WNW,302,6.0,9.0,86,0.00,,,0.00,Wunderground v.1.15,2013-03-03 19:20:00,
2013-03-03 14:21:00,29.0,25.1,29.64,WNW,298,6.0,9.0,85,0.00,,,0.00,Wunderground v.1.15,2013-03-03 19:21:00,
2013-03-03 14:22:00,29.0,25.1,29.64,North,352,7.0,9.0,85,0.00,,,0.00,Wunderground v.1.15,2013-03-03 19:22:00,
2013-03-03 14:25:00,29.1,24.9,29.64,NW,305,4.0,9.0,84,0.00,,,0.00,Wunderground v.1.15,2013-03-03 19:25:00,
2013-03-03 14:26:00,29.2,25.3,29.64,NW,317,2.0,9.0,85,0.00,,,0.00,Wunderground v.1.15,2013-03-03 19:26:00,
2013-03-03 14:27:00,29.2,25.3,29.64,NW,314,9.0,13.0,85,0.00,,,0.00,Wunderground v.1.15,2013-03-03 19:27:00,
2013-03-03 14:30:00,29.3,25.1,29.64,WNW,302,7.0,10.0,84,0.00,,,0.00,Wunderground v.1.15,2013-03-03 19:30:00,
2013-03-03 14:31:00,29.3,25.1,29.64,NW,326,4.0,10.0,84,0.00,,,0.00,Wunderground v.1.15,2013-03-03 19:31:00,
2013-03-03 14:32:00,29.4,25.2,29.64,NW,308,8.0,10.0,84,0.00,,,0.00,Wunderground v.1.15,2013-03-03 19:32:00,
2013-03-03 14:35:00,29.5,25.3,29.64,NW,311,3.0,11.0,84,0.00,,,0.00,Wunderground v.1.15,2013-03-03 19:35:00,
2013-03-03 14:36:00,29.6,25.4,29.64,NNW,339,6.0,11.0,84,0.00,,,0.00,Wunderground v.1.15,2013-03-03 19:36:00,
2013-03-03 14:37:00,29.6,25.4,29.64,NW,321,10.0,11.0,84,0.00,,,0.00,Wunderground v.1.15,2013-03-03 19:37:00,
2013-03-03 14:40:00,29.7,25.2,29.64,NNW,333,10.0,10.0,83,0.00,,,0.00,Wunderground v.1.15,2013-03-03 19:40:00,
2013-03-03 14:41:00,29.7,24.9,29.64,NW,326,9.0,13.0,82,0.00,,,0.00,Wunderground v.1.15,2013-03-03 19:41:00,
2013-03-03 14:42:00,29.6,24.8,29.64,NNW,342,10.0,13.0,82,0.00,,,0.00,Wunderground v.1.15,2013-03-03 19:42:00,
2013-03-03 14:45:00,29.6,24.8,29.63,NNW,335,8.0,14.0,82,0.00,,,0.00,Wunderground v.1.15,2013-03-03 19:45:00,
2013-03-03 14:46:00,29.6,24.8,29.64,NNW,334,13.0,14.0,82,0.00,,,0.00,Wunderground v.1.15,2013-03-03 19:46:00,
2013-03-03 14:47:00,29.6,24.8,29.64,NNW,335,11.0,14.0,82,0.00,,,0.00,Wunderground v.1.15,2013-03-03 19:47:00,
2013-03-03 14:51:00,29.6,24.8,29.64,NNW,338,8.0,11.0,82,0.00,,,0.00,Wunderground v.1.15,2013-03-03 19:51:00,
2013-03-03 14:52:00,29.7,24.9,29.63,NW,304,8.0,11.0,82,0.00,,,0.00,Wunderground v.1.15,2013-03-03 19:52:00,
2013-03-03 14:53:00,29.7,24.9,29.63,NW,312,7.0,11.0,82,0.00,,,0.00,Wunderground v.1.15,2013-03-03 19:53:00,
2013-03-03 14:56:00,29.7,24.9,29.64,NNW,333,8.0,11.0,82,0.00,,,0.00,Wunderground v.1.15,2013-03-03 19:56:00,
2013-03-03 14:57:00,29.8,25.0,29.64,NNW,327,12.0,12.0,82,0.00,,,0.00,Wunderground v.1.15,2013-03-03 19:57:00,
2013-03-03 14:58:00,29.8,25.0,29.64,NW,312,9.0,12.0,82,0.00,,,0.00,Wunderground v.1.15,2013-03-03 19:58:00,
2013-03-03 15:01:00,29.8,25.0,29.64,NW,319,7.0,12.0,82,0.00,,,0.00,Wunderground v.1.15,2013-03-03 20:01:00,
2013-03-03 15:02:00,29.8,25.0,29.63,NW,307,10.0,12.0,82,0.00,,,0.00,Wunderground v.1.15,2013-03-03 20:02:00,
2013-03-03 15:03:00,29.8,25.0,29.64,NNW,329,5.0,12.0,82,0.00,,,0.00,Wunderground v.1.15,2013-03-03 20:03:00,
2013-03-03 15:06:00,29.9,25.1,29.64,WNW,288,9.0,12.0,82,0.00,,,0.00,Wunderground v.1.15,2013-03-03 20:06:00,
2013-03-03 15:07:00,29.9,25.1,29.63,NW,323,7.0,12.0,82,0.00,,,0.00,Wunderground v.1.15,2013-03-03 20:07:00,
2013-03-03 15:08:00,29.9,25.1,29.63,NNW,331,7.0,12.0,82,0.00,,,0.00,Wunderground v.1.15,2013-03-03 20:08:00,
2013-03-03 15:11:00,30.1,25.3,29.64,NW,308,3.0,9.0,82,0.00,,,0.00,Wunderground v.1.15,2013-03-03 20:11:00,
2013-03-03 15:12:00,30.1,25.3,29.63,NNW,338,6.0,9.0,82,0.00,,,0.00,Wunderground v.1.15,2013-03-03 20:12:00,
2013-03-03 15:13:00,30.2,25.4,29.64,North,1,4.0,9.0,82,0.00,,,0.00,Wunderground v.1.15,2013-03-03 20:13:00,
2013-03-03 15:16:00,30.3,25.5,29.63,WNW,303,6.0,9.0,82,0.00,,,0.00,Wunderground v.1.15,2013-03-03 20:16:00,
2013-03-03 15:17:00,30.3,25.5,29.64,NW,309,6.0,10.0,82,0.00,,,0.00,Wunderground v.1.15,2013-03-03 20:17:00,
2013-03-03 15:18:00,30.3,25.5,29.64,NNW,333,4.0,10.0,82,0.00,,,0.00,Wunderground v.1.15,2013-03-03 20:18:00,
2013-03-03 15:21:00,30.4,25.6,29.64,NNW,333,9.0,11.0,82,0.00,,,0.00,Wunderground v.1.15,2013-03-03 20:21:00,
2013-03-03 15:22:00,30.4,25.6,29.64,NW,314,6.0,11.0,82,0.00,,,0.00,Wunderground v.1.15,2013-03-03 20:22:00,
2013-03-03 15:23:00,30.4,25.6,29.64,NNW,330,6.0,11.0,82,0.00,,,0.00,Wunderground v.1.15,2013-03-03 20:23:00,
2013-03-03 15:26:00,30.3,25.5,29.64,NW,312,4.0,11.0,82,0.00,,,0.00,Wunderground v.1.15,2013-03-03 20:26:00,
2013-03-03 15:27:00,30.3,25.5,29.64,WNW,288,4.0,11.0,82,0.00,,,0.00,Wunderground v.1.15,2013-03-03 20:27:00,
2013-03-03 15:28:00,30.3,25.5,29.64,NNW,333,5.0,11.0,82,0.00,,,0.00,Wunderground v.1.15,2013-03-03 20:28:00,
2013-03-03 15:29:00,30.3,25.5,29.64,NNW,332,6.0,11.0,82,0.00,,,0.00,Wunderground v.1.15,2013-03-03 20:29:00,
2013-03-03 15:31:00,30.3,25.5,29.64,NW,319,5.0,9.0,82,0.00,,,0.00,Wunderground v.1.15,2013-03-03 20:31:00,
2013-03-03 15:32:00,30.3,25.5,29.64,NNW,343,9.0,9.0,82,0.00,,,0.00,Wunderground v.1.15,2013-03-03 20:32:00,
2013-03-03 15:34:00,30.3,25.5,29.64,NNW,346,7.0,12.0,82,0.00,,,0.00,Wunderground v.1.15,2013-03-03 20:34:00,
2013-03-03 15:36:00,30.2,25.4,29.64,NNW,328,6.0,12.0,82,0.00,,,0.00,Wunderground v.1.15,2013-03-03 20:36:00,
2013-03-03 15:37:00,30.3,25.5,29.64,NNW,338,7.0,12.0,82,0.00,,,0.00,Wunderground v.1.15,2013-03-03 20:37:00,
2013-03-03 15:39:00,30.3,25.5,29.64,NNW,339,10.0,15.0,82,0.00,,,0.00,Wunderground v.1.15,2013-03-03 20:39:00,
2013-03-03 15:42:00,30.3,25.5,29.64,NW,319,8.0,12.0,82,0.00,,,0.00,Wunderground v.1.15,2013-03-03 20:42:00,
2013-03-03 15:44:00,30.3,25.5,29.64,NNW,340,6.0,12.0,82,0.00,,,0.00,Wunderground v.1.15,2013-03-03 20:44:00,
2013-03-03 15:47:00,30.3,25.5,29.64,NW,312,6.0,12.0,82,0.00,,,0.00,Wunderground v.1.15,2013-03-03 20:47:00,
2013-03-03 15:49:00,30.3,25.5,29.64,WNW,301,6.0,8.0,82,0.00,,,0.00,Wunderground v.1.15,2013-03-03 20:49:00,
2013-03-03 15:52:00,30.3,25.5,29.64,NW,308,5.0,8.0,82,0.00,,,0.00,Wunderground v.1.15,2013-03-03 20:52:00,
2013-03-03 15:54:00,30.3,25.5,29.64,NW,306,9.0,12.0,82,0.00,,,0.00,Wunderground v.1.15,2013-03-03 20:54:00,
2013-03-03 15:55:00,30.3,25.5,29.64,NNW,328,6.0,12.0,82,0.00,,,0.00,Wunderground v.1.15,2013-03-03 20:55:00,
2013-03-03 15:57:00,30.2,25.4,29.64,NW,316,5.0,13.0,82,0.00,,,0.00,Wunderground v.1.15,2013-03-03 20:57:00,
2013-03-03 15:58:00,30.2,25.4,29.64,NNE,27,10.0,13.0,82,0.00,,,0.00,Wunderground v.1.15,2013-03-03 20:58:00,
2013-03-03 15:59:00,30.2,25.4,29.64,NW,317,5.0,7.0,82,0.00,,,0.00,Wunderground v.1.15,2013-03-03 20:59:00,
2013-03-03 16:00:00,30.2,25.4,29.64,NNW,340,5.0,7.0,82,0.00,,,0.00,Wunderground v.1.15,2013-03-03 21:00:00,
2013-03-03 16:02:00,30.1,25.3,29.64,NW,307,6.0,13.0,82,0.00,,,0.00,Wunderground v.1.15,2013-03-03 21:02:00,
2013-03-03 16:03:00,30.1,25.3,29.64,WNW,302,9.0,13.0,82,0.00,,,0.00,Wunderground v.1.15,2013-03-03 21:03:00,
2013-03-03 16:04:00,30.1,25.3,29.64,NNW,339,8.0,13.0,82,0.00,,,0.00,Wunderground v.1.15,2013-03-03 21:04:00,
2013-03-03 16:05:00,30.1,25.3,29.64,NNW,342,8.0,13.0,82,0.00,,,0.00,Wunderground v.1.15,2013-03-03 21:05:00,
2013-03-03 16:08:00,30.0,25.2,29.64,NNW,344,5.0,13.0,82,0.00,,,0.00,Wunderground v.1.15,2013-03-03 21:08:00,
2013-03-03 16:09:00,30.0,25.5,29.64,North,349,7.0,8.0,83,0.00,,,0.00,Wunderground v.1.15,2013-03-03 21:09:00,
2013-03-03 16:10:00,30.1,25.6,29.64,NNW,333,7.0,8.0,83,0.00,,,0.00,Wunderground v.1.15,2013-03-03 21:10:00,
2013-03-03 16:13:00,30.0,25.5,29.64,NNE,14,6.0,9.0,83,0.00,,,0.00,Wunderground v.1.15,2013-03-03 21:13:00,
2013-03-03 16:14:00,30.0,25.5,29.64,NNW,340,7.0,13.0,83,0.00,,,0.00,Wunderground v.1.15,2013-03-03 21:14:00,
2013-03-03 16:15:00,30.0,25.5,29.64,NW,315,12.0,13.0,83,0.00,,,0.00,Wunderground v.1.15,2013-03-03 21:15:00,
2013-03-03 16:18:00,29.9,25.4,29.64,NW,321,13.0,13.0,83,0.00,,,0.00,Wunderground v.1.15,2013-03-03 21:18:00,
2013-03-03 16:19:00,29.9,25.4,29.64,NW,313,8.0,8.0,83,0.00,,,0.00,Wunderground v.1.15,2013-03-03 21:19:00,
2013-03-03 16:21:00,29.8,25.3,29.64,NNW,329,6.0,11.0,83,0.00,,,0.00,Wunderground v.1.15,2013-03-03 21:21:00,
2013-03-03 16:23:00,29.8,25.3,29.65,NNW,328,11.0,12.0,83,0.00,,,0.00,Wunderground v.1.15,2013-03-03 21:23:00,
2013-03-03 16:24:00,29.8,25.3,29.65,NNW,338,12.0,13.0,83,0.00,,,0.00,Wunderground v.1.15,2013-03-03 21:24:00,
2013-03-03 16:26:00,29.8,25.3,29.65,NNW,343,7.0,13.0,83,0.00,,,0.00,Wunderground v.1.15,2013-03-03 21:26:00,
2013-03-03 16:28:00,29.7,25.5,29.65,North,359,5.0,13.0,84,0.00,,,0.00,Wunderground v.1.15,2013-03-03 21:28:00,
2013-03-03 16:30:00,29.7,25.5,29.65,NW,323,9.0,12.0,84,0.00,,,0.00,Wunderground v.1.15,2013-03-03 21:30:00,
2013-03-03 16:31:00,29.7,25.5,29.65,NNW,347,6.0,12.0,84,0.00,,,0.00,Wunderground v.1.15,2013-03-03 21:31:00,
2013-03-03 16:33:00,29.6,25.4,29.65,NNW,340,9.0,12.0,84,0.00,,,0.00,Wunderground v.1.15,2013-03-03 21:33:00,
2013-03-03 16:34:00,29.6,25.4,29.65,NNW,333,9.0,12.0,84,0.00,,,0.00,Wunderground v.1.15,2013-03-03 21:34:00,
2013-03-03 16:35:00,29.6,25.4,29.65,NNW,336,6.0,12.0,84,0.00,,,0.00,Wunderground v.1.15,2013-03-03 21:35:00,
2013-03-03 16:36:00,29.6,25.4,29.65,NNW,335,8.0,12.0,84,0.00,,,0.00,Wunderground v.1.15,2013-03-03 21:36:00,
2013-03-03 16:38:00,29.5,25.3,29.65,North,353,6.0,12.0,84,0.00,,,0.00,Wunderground v.1.15,2013-03-03 21:38:00,
2013-03-03 16:39:00,29.5,25.3,29.65,NE,36,6.0,12.0,84,0.00,,,0.00,Wunderground v.1.15,2013-03-03 21:39:00,
2013-03-03 16:40:00,29.5,25.3,29.65,NW,321,9.0,12.0,84,0.00,,,0.00,Wunderground v.1.15,2013-03-03 21:40:00,
2013-03-03 16:41:00,29.5,25.3,29.65,NW,321,7.0,8.0,84,0.00,,,0.00,Wunderground v.1.15,2013-03-03 21:41:00,
2013-03-03 16:43:00,29.4,25.4,29.65,NNW,333,5.0,8.0,85,0.00,,,0.00,Wunderground v.1.15,2013-03-03 21:43:00,
2013-03-03 16:44:00,29.4,25.4,29.65,WNW,299,4.0,8.0,85,0.00,,,0.00,Wunderground v.1.15,2013-03-03 21:44:00,
2013-03-03 16:45:00,29.4,25.4,29.66,NNW,340,4.0,8.0,85,0.00,,,0.00,Wunderground v.1.15,2013-03-03 21:45:00,
2013-03-03 16:46:00,29.4,25.4,29.66,NNW,335,8.0,9.0,85,0.00,,,0.00,Wunderground v.1.15,2013-03-03 21:46:00,
2013-03-03 16:49:00,29.3,25.4,29.65,NNW,331,8.0,13.0,85,0.00,,,0.00,Wunderground v.1.15,2013-03-03 21:49:00,
2013-03-03 16:50:00,29.3,25.4,29.65,NW,317,8.0,13.0,85,0.00,,,0.00,Wunderground v.1.15,2013-03-03 21:50:00,
2013-03-03 16:52:00,29.2,25.3,29.65,NW,321,7.0,10.0,85,0.00,,,0.00,Wunderground v.1.15,2013-03-03 21:52:00,
2013-03-03 16:54:00,29.2,25.3,29.66,NW,325,6.0,10.0,85,0.00,,,0.00,Wunderground v.1.15,2013-03-03 21:54:00,
2013-03-03 16:55:00,29.1,25.2,29.66,NNW,333,7.0,12.0,85,0.00,,,0.00,Wunderground v.1.15,2013-03-03 21:55:00,
2013-03-03 16:57:00,29.1,25.2,29.66,North,352,9.0,12.0,85,0.00,,,0.00,Wunderground v.1.15,2013-03-03 21:57:00,
2013-03-03 16:59:00,29.0,25.1,29.65,WNW,301,6.0,15.0,85,0.00,,,0.00,Wunderground v.1.15,2013-03-03 21:59:00,
2013-03-03 17:00:00,29.0,25.1,29.65,NW,309,9.0,9.0,85,0.00,,,0.00,Wunderground v.1.15,2013-03-03 22:00:00,
2013-03-03 17:02:00,28.9,25.0,29.65,NNW,333,12.0,15.0,85,0.00,,,0.00,Wunderground v.1.15,2013-03-03 22:02:00,
2013-03-03 17:04:00,28.8,24.9,29.65,NNW,339,6.0,17.0,85,0.00,,,0.00,Wunderground v.1.15,2013-03-03 22:04:00,
2013-03-03 17:05:00,28.8,24.9,29.66,NNW,328,9.0,17.0,85,0.00,,,0.00,Wunderground v.1.15,2013-03-03 22:05:00,
2013-03-03 17:08:00,28.8,24.9,29.66,NNW,339,8.0,17.0,85,0.00,,,0.00,Wunderground v.1.15,2013-03-03 22:08:00,
2013-03-03 17:09:00,28.7,24.8,29.66,NNW,340,8.0,17.0,85,0.00,,,0.00,Wunderground v.1.15,2013-03-03 22:09:00,
2013-03-03 17:10:00,28.7,24.8,29.66,North,356,4.0,9.0,85,0.00,,,0.00,Wunderground v.1.15,2013-03-03 22:10:00,
2013-03-03 17:13:00,28.6,24.7,29.66,WNW,300,5.0,11.0,85,0.00,,,0.00,Wunderground v.1.15,2013-03-03 22:13:00,
2013-03-03 17:14:00,28.6,24.9,29.66,NNW,340,9.0,11.0,86,0.00,,,0.00,Wunderground v.1.15,2013-03-03 22:14:00,
2013-03-03 17:15:00,28.6,24.9,29.66,NNW,346,5.0,11.0,86,0.00,,,0.00,Wunderground v.1.15,2013-03-03 22:15:00,
2013-03-03 17:18:00,28.5,24.8,29.66,NW,309,6.0,11.0,86,0.00,,,0.00,Wunderground v.1.15,2013-03-03 22:18:00,
2013-03-03 17:20:00,28.4,24.7,29.66,NNW,339,5.0,11.0,86,0.00,,,0.00,Wunderground v.1.15,2013-03-03 22:20:00,
2013-03-03 17:23:00,28.3,24.6,29.66,NW,317,8.0,11.0,86,0.00,,,0.00,Wunderground v.1.15,2013-03-03 22:23:00,
2013-03-03 17:25:00,28.3,24.6,29.66,NNW,345,5.0,11.0,86,0.00,,,0.00,Wunderground v.1.15,2013-03-03 22:25:00,
2013-03-03 17:28:00,28.3,24.6,29.66,NNW,340,9.0,11.0,86,0.00,,,0.00,Wunderground v.1.15,2013-03-03 22:28:00,
2013-03-03 17:30:00,28.2,24.3,29.66,North,352,6.0,13.0,85,0.00,,,0.00,Wunderground v.1.15,2013-03-03 22:30:00,
2013-03-03 17:31:00,28.2,24.3,29.66,NW,323,5.0,9.0,85,0.00,,,0.00,Wunderground v.1.15,2013-03-03 22:31:00,
2013-03-03 17:33:00,28.1,24.5,29.66,North,9,5.0,9.0,86,0.00,,,0.00,Wunderground v.1.15,2013-03-03 22:33:00,
2013-03-03 17:35:00,28.1,24.5,29.66,NNW,332,6.0,10.0,86,0.00,,,0.00,Wunderground v.1.15,2013-03-03 22:35:00,
2013-03-03 17:36:00,28.1,24.5,29.66,NNE,25,4.0,10.0,86,0.00,,,0.00,Wunderground v.1.15,2013-03-03 22:36:00,
2013-03-03 17:38:00,28.1,24.5,29.66,NNW,333,6.0,10.0,86,0.00,,,0.00,Wunderground v.1.15,2013-03-03 22:38:00,
2013-03-03 17:40:00,28.1,24.5,29.67,NNW,341,8.0,9.0,86,0.00,,,0.00,Wunderground v.1.15,2013-03-03 22:40:00,
2013-03-03 17:41:00,28.1,24.2,29.66,NNW,330,9.0,14.0,85,0.00,,,0.00,Wunderground v.1.15,2013-03-03 22:41:00,
2013-03-03 17:44:00,28.0,24.1,29.67,NNW,327,9.0,14.0,85,0.00,,,0.00,Wunderground v.1.15,2013-03-03 22:44:00,
2013-03-03 17:45:00,28.0,24.1,29.67,NW,308,8.0,14.0,85,0.00,,,0.00,Wunderground v.1.15,2013-03-03 22:45:00,
2013-03-03 17:46:00,28.0,24.1,29.67,WNW,298,8.0,14.0,85,0.00,,,0.00,Wunderground v.1.15,2013-03-03 22:46:00,
2013-03-03 17:49:00,28.0,24.1,29.67,NW,316,11.0,14.0,85,0.00,,,0.00,Wunderground v.1.15,2013-03-03 22:49:00,
2013-03-03 17:50:00,27.9,24.0,29.67,NNW,346,5.0,8.0,85,0.00,,,0.00,Wunderground v.1.15,2013-03-03 22:50:00,
2013-03-03 17:51:00,27.9,24.0,29.67,NW,317,4.0,8.0,85,0.00,,,0.00,Wunderground v.1.15,2013-03-03 22:51:00,
2013-03-03 17:54:00,27.8,23.9,29.67,NW,311,7.0,14.0,85,0.00,,,0.00,Wunderground v.1.15,2013-03-03 22:54:00,
2013-03-03 17:55:00,27.8,23.9,29.67,NNW,333,5.0,14.0,85,0.00,,,0.00,Wunderground v.1.15,2013-03-03 22:55:00,
2013-03-03 17:56:00,27.8,23.9,29.67,NNW,339,6.0,14.0,85,0.00,,,0.00,Wunderground v.1.15,2013-03-03 22:56:00,
2013-03-03 17:59:00,27.8,23.9,29.67,NNW,333,11.0,14.0,85,0.00,,,0.00,Wunderground v.1.15,2013-03-03 22:59:00,
2013-03-03 18:00:00,27.7,23.8,29.67,NW,325,9.0,11.0,85,0.00,,,0.00,Wunderground v.1.15,2013-03-03 23:00:00,
2013-03-03 18:01:00,27.7,23.8,29.67,NNW,335,7.0,11.0,85,0.00,,,0.00,Wunderground v.1.15,2013-03-03 23:01:00,
2013-03-03 18:02:00,27.7,23.8,29.67,NNW,340,6.0,11.0,85,0.00,,,0.00,Wunderground v.1.15,2013-03-03 23:02:00,
2013-03-03 18:04:00,27.7,23.8,29.67,NW,311,7.0,11.0,85,0.00,,,0.00,Wunderground v.1.15,2013-03-03 23:04:00,
2013-03-03 18:05:00,27.6,23.7,29.67,NNW,333,13.0,14.0,85,0.00,,,0.00,Wunderground v.1.15,2013-03-03 23:05:00,
2013-03-03 18:06:00,27.6,23.7,29.67,NW,319,7.0,15.0,85,0.00,,,0.00,Wunderground v.1.15,2013-03-03 23:06:00,
2013-03-03 18:07:00,27.6,23.7,29.67,NNW,328,9.0,15.0,85,0.00,,,0.00,Wunderground v.1.15,2013-03-03 23:07:00,
2013-03-03 18:09:00,27.6,23.7,29.67,NW,326,8.0,15.0,85,0.00,,,0.00,Wunderground v.1.15,2013-03-03 23:09:00,
2013-03-03 18:11:00,27.5,23.6,29.67,NW,315,8.0,10.0,85,0.00,,,0.00,Wunderground v.1.15,2013-03-03 23:11:00,
2013-03-03 18:12:00,27.5,23.6,29.67,NNW,328,11.0,11.0,85,0.00,,,0.00,Wunderground v.1.15,2013-03-03 23:12:00,
2013-03-03 18:14:00,27.5,23.6,29.67,North,356,6.0,13.0,85,0.00,,,0.00,Wunderground v.1.15,2013-03-03 23:14:00,
2013-03-03 18:16:00,27.5,23.6,29.67,NNW,329,5.0,13.0,85,0.00,,,0.00,Wunderground v.1.15,2013-03-03 23:16:00,
2013-03-03 18:17:00,27.4,23.5,29.67,NNW,335,4.0,13.0,85,0.00,,,0.00,Wunderground v.1.15,2013-03-03 23:17:00,
2013-03-03 18:19:00,27.4,23.5,29.67,NNW,335,5.0,13.0,85,0.00,,,0.00,Wunderground v.1.15,2013-03-03 23:19:00,
2013-03-03 18:21:00,27.4,23.5,29.67,NW,304,7.0,9.0,85,0.00,,,0.00,Wunderground v.1.15,2013-03-03 23:21:00,
2013-03-03 18:22:00,27.4,23.5,29.67,NW,321,7.0,16.0,85,0.00,,,0.00,Wunderground v.1.15,2013-03-03 23:22:00,
2013-03-03 18:24:00,27.4,23.5,29.68,NW,319,10.0,16.0,85,0.00,,,0.00,Wunderground v.1.15,2013-03-03 23:24:00,
2013-03-03 18:26:00,27.3,23.4,29.67,NNW,328,11.0,16.0,85,0.00,,,0.00,Wunderground v.1.15,2013-03-03 23:26:00,
2013-03-03 18:27:00,27.3,23.1,29.68,NW,312,7.0,16.0,84,0.00,,,0.00,Wunderground v.1.15,2013-03-03 23:27:00,
2013-03-03 18:29:00,27.3,23.1,29.68,NW,321,8.0,16.0,84,0.00,,,0.00,Wunderground v.1.15,2013-03-03 23:29:00,
2013-03-03 18:31:00,27.3,23.1,29.68,NW,308,6.0,15.0,84,0.00,,,0.00,Wunderground v.1.15,2013-03-03 23:31:00,
2013-03-03 18:32:00,27.2,23.0,29.68,WNW,298,5.0,15.0,84,0.00,,,0.00,Wunderground v.1.15,2013-03-03 23:32:00,
2013-03-03 18:34:00,27.2,23.3,29.68,NW,317,5.0,15.0,85,0.00,,,0.00,Wunderground v.1.15,2013-03-03 23:34:00,
2013-03-03 18:36:00,27.2,23.3,29.68,NNW,335,8.0,15.0,85,0.00,,,0.00,Wunderground v.1.15,2013-03-03 23:36:00,
2013-03-03 18:37:00,27.2,23.3,29.68,NW,305,9.0,15.0,85,0.00,,,0.00,Wunderground v.1.15,2013-03-03 23:37:00,
2013-03-03 18:40:00,27.1,23.2,29.68,WNW,300,7.0,15.0,85,0.00,,,0.00,Wunderground v.1.15,2013-03-03 23:40:00,
2013-03-03 18:41:00,27.1,23.2,29.68,NW,323,7.0,11.0,85,0.00,,,0.00,Wunderground v.1.15,2013-03-03 23:41:00,
2013-03-03 18:42:00,27.1,23.2,29.68,WNW,301,5.0,11.0,85,0.00,,,0.00,Wunderground v.1.15,2013-03-03 23:42:00,
2013-03-03 18:45:00,27.1,23.2,29.68,NW,317,8.0,11.0,85,0.00,,,0.00,Wunderground v.1.15,2013-03-03 23:45:00,
2013-03-03 18:47:00,27.0,23.1,29.68,NW,323,7.0,11.0,85,0.00,,,0.00,Wunderground v.1.15,2013-03-03 23:47:00,
2013-03-03 18:48:00,27.1,23.2,29.68,NNW,332,6.0,11.0,85,0.00,,,0.00,Wunderground v.1.15,2013-03-03 23:48:00,
2013-03-03 18:50:00,27.0,23.1,29.68,NW,326,7.0,9.0,85,0.00,,,0.00,Wunderground v.1.15,2013-03-03 23:50:00,
2013-03-03 18:52:00,27.0,22.8,29.68,NNW,333,8.0,11.0,84,0.00,,,0.00,Wunderground v.1.15,2013-03-03 23:52:00,
2013-03-03 18:53:00,27.0,23.1,29.68,NNW,331,9.0,11.0,85,0.00,,,0.00,Wunderground v.1.15,2013-03-03 23:53:00,
2013-03-03 18:55:00,27.0,22.8,29.68,NNW,335,9.0,12.0,84,0.00,,,0.00,Wunderground v.1.15,2013-03-03 23:55:00,
2013-03-03 18:57:00,27.0,22.8,29.68,North,349,12.0,14.0,84,0.00,,,0.00,Wunderground v.1.15,2013-03-03 23:57:00,
2013-03-03 18:58:00,27.0,22.8,29.68,NW,308,14.0,15.0,84,0.00,,,0.00,Wunderground v.1.15,2013-03-03 23:58:00,
2013-03-03 19:00:00,27.0,22.8,29.68,North,352,7.0,10.0,84,0.00,,,0.00,Wunderground v.1.15,2013-03-04 00:00:00,
2013-03-03 19:02:00,27.0,22.8,29.68,NNW,335,12.0,15.0,84,0.00,,,0.00,Wunderground v.1.15,2013-03-04 00:02:00,
2013-03-03 19:03:00,27.0,22.8,29.68,NNW,346,11.0,15.0,84,0.00,,,0.00,Wunderground v.1.15,2013-03-04 00:03:00,
2013-03-03 19:06:00,27.0,22.8,29.68,NW,325,13.0,15.0,84,0.00,,,0.00,Wunderground v.1.15,2013-03-04 00:06:00,
2013-03-03 19:07:00,27.0,22.8,29.68,NW,319,7.0,15.0,84,0.00,,,0.00,Wunderground v.1.15,2013-03-04 00:07:00,
2013-03-03 19:08:00,27.0,22.8,29.68,NW,304,11.0,15.0,84,0.00,,,0.00,Wunderground v.1.15,2013-03-04 00:08:00,
2013-03-03 19:11:00,27.0,22.8,29.68,NW,317,7.0,14.0,84,0.00,,,0.00,Wunderground v.1.15,2013-03-04 00:11:00,
2013-03-03 19:12:00,26.9,22.7,29.68,NNW,339,6.0,14.0,84,0.00,,,0.00,Wunderground v.1.15,2013-03-04 00:12:00,
2013-03-03 19:13:00,26.9,22.7,29.68,NW,326,15.0,16.0,84,0.00,,,0.00,Wunderground v.1.15,2013-03-04 00:13:00,
2013-03-03 19:16:00,26.9,22.7,29.68,North,352,10.0,16.0,84,0.00,,,0.00,Wunderground v.1.15,2013-03-04 00:16:00,
2013-03-03 19:17:00,26.9,22.7,29.68,NW,323,10.0,16.0,84,0.00,,,0.00,Wunderground v.1.15,2013-03-04 00:17:00,
2013-03-03 19:18:00,26.9,22.7,29.68,NNW,335,8.0,16.0,84,0.00,,,0.00,Wunderground v.1.15,2013-03-04 00:18:00,
2013-03-03 19:21:00,26.8,22.6,29.68,NW,316,6.0,9.0,84,0.00,,,0.00,Wunderground v.1.15,2013-03-04 00:21:00,
2013-03-03 19:23:00,26.8,22.6,29.68,NW,304,11.0,14.0,84,0.00,,,0.00,Wunderground v.1.15,2013-03-04 00:23:00,
2013-03-03 19:26:00,26.8,22.6,29.68,NW,321,7.0,14.0,84,0.00,,,0.00,Wunderground v.1.15,2013-03-04 00:26:00,
2013-03-03 19:28:00,26.8,22.6,29.68,WNW,298,11.0,14.0,84,0.00,,,0.00,Wunderground v.1.15,2013-03-04 00:28:00,
2013-03-03 19:29:00,26.7,22.5,29.68,NNW,348,12.0,14.0,84,0.00,,,0.00,Wunderground v.1.15,2013-03-04 00:29:00,
2013-03-03 19:31:00,26.7,22.5,29.68,NNW,335,10.0,15.0,84,0.00,,,0.00,Wunderground v.1.15,2013-03-04 00:31:00,
2013-03-03 19:33:00,26.7,22.5,29.68,NNW,340,6.0,15.0,84,0.00,,,0.00,Wunderground v.1.15,2013-03-04 00:33:00,
2013-03-03 19:34:00,26.7,22.5,29.68,WNW,291,6.0,15.0,84,0.00,,,0.00,Wunderground v.1.15,2013-03-04 00:34:00,
2013-03-03 19:36:00,26.7,22.8,29.67,NW,317,9.0,15.0,85,0.00,,,0.00,Wunderground v.1.15,2013-03-04 00:36:00,
2013-03-03 19:38:00,26.7,22.8,29.67,NNW,330,11.0,15.0,85,0.00,,,0.00,Wunderground v.1.15,2013-03-04 00:38:00,
2013-03-03 19:39:00,26.7,22.5,29.67,WNW,300,10.0,15.0,84,0.00,,,0.00,Wunderground v.1.15,2013-03-04 00:39:00,
2013-03-03 19:41:00,26.7,22.8,29.67,NW,308,6.0,13.0,85,0.00,,,0.00,Wunderground v.1.15,2013-03-04 00:41:00,
2013-03-03 19:43:00,26.7,22.8,29.67,NNW,333,6.0,13.0,85,0.00,,,0.00,Wunderground v.1.15,2013-03-04 00:43:00,
2013-03-03 19:44:00,26.7,22.8,29.67,NW,308,9.0,13.0,85,0.00,,,0.00,Wunderground v.1.15,2013-03-04 00:44:00,
2013-03-03 19:46:00,26.6,22.7,29.67,NW,314,14.0,14.0,85,0.00,,,0.00,Wunderground v.1.15,2013-03-04 00:46:00,
2013-03-03 19:48:00,26.6,22.7,29.67,NW,316,9.0,14.0,85,0.00,,,0.00,Wunderground v.1.15,2013-03-04 00:48:00,
2013-03-03 19:49:00,26.6,22.7,29.67,NW,319,11.0,14.0,85,0.00,,,0.00,Wunderground v.1.15,2013-03-04 00:49:00,
2013-03-03 19:51:00,26.6,22.7,29.67,NW,317,9.0,12.0,85,0.00,,,0.00,Wunderground v.1.15,2013-03-04 00:51:00,
2013-03-03 19:53:00,26.6,22.7,29.67,NNW,330,6.0,12.0,85,0.00,,,0.00,Wunderground v.1.15,2013-03-04 00:53:00,
2013-03-03 19:54:00,26.6,22.7,29.67,NNW,335,9.0,12.0,85,0.00,,,0.00,Wunderground v.1.15,2013-03-04 00:54:00,
2013-03-03 19:56:00,26.6,22.7,29.67,NNW,327,5.0,13.0,85,0.00,,,0.00,Wunderground v.1.15,2013-03-04 00:56:00,
2013-03-03 19:58:00,26.6,22.7,29.67,NW,326,9.0,13.0,85,0.00,,,0.00,Wunderground v.1.15,2013-03-04 00:58:00,
2013-03-03 19:59:00,26.6,22.7,29.67,NNW,328,10.0,13.0,85,0.00,,,0.00,Wunderground v.1.15,2013-03-04 00:59:00,
2013-03-03 20:01:00,26.5,22.6,29.68,NW,312,9.0,13.0,85,0.00,,,0.00,Wunderground v.1.15,2013-03-04 01:01:00,
2013-03-03 20:03:00,26.6,22.7,29.68,WNW,302,10.0,14.0,85,0.00,,,0.00,Wunderground v.1.15,2013-03-04 01:03:00,
2013-03-03 20:04:00,26.6,22.7,29.68,WNW,297,10.0,14.0,85,0.00,,,0.00,Wunderground v.1.15,2013-03-04 01:04:00,
2013-03-03 20:06:00,26.5,22.6,29.68,NW,312,10.0,14.0,85,0.00,,,0.00,Wunderground v.1.15,2013-03-04 01:06:00,
2013-03-03 20:08:00,26.5,22.6,29.67,NNW,329,7.0,14.0,85,0.00,,,0.00,Wunderground v.1.15,2013-03-04 01:08:00,
2013-03-03 20:09:00,26.5,22.6,29.68,NW,304,7.0,14.0,85,0.00,,,0.00,Wunderground v.1.15,2013-03-04 01:09:00,
2013-03-03 20:11:00,26.5,22.6,29.67,NW,308,14.0,15.0,85,0.00,,,0.00,Wunderground v.1.15,2013-03-04 01:11:00,
2013-03-03 20:13:00,26.5,22.6,29.68,NW,317,15.0,15.0,85,0.00,,,0.00,Wunderground v.1.15,2013-03-04 01:13:00,
2013-03-03 20:14:00,26.5,22.6,29.68,NW,326,8.0,15.0,85,0.00,,,0.00,Wunderground v.1.15,2013-03-04 01:14:00,
2013-03-03 20:16:00,26.5,22.6,29.68,NW,323,7.0,16.0,85,0.00,,,0.00,Wunderground v.1.15,2013-03-04 01:16:00,
2013-03-03 20:18:00,26.5,22.6,29.68,North,360,10.0,16.0,85,0.00,,,0.00,Wunderground v.1.15,2013-03-04 01:18:00,
2013-03-03 20:19:00,26.5,22.6,29.68,NNW,335,11.0,16.0,85,0.00,,,0.00,Wunderground v.1.15,2013-03-04 01:19:00,
2013-03-03 20:21:00,26.5,22.6,29.68,NW,321,8.0,14.0,85,0.00,,,0.00,Wunderground v.1.15,2013-03-04 01:21:00,
2013-03-03 20:23:00,26.5,22.9,29.68,NW,314,7.0,14.0,86,0.00,,,0.00,Wunderground v.1.15,2013-03-04 01:23:00,
2013-03-03 20:24:00,26.5,22.9,29.68,NNW,335,8.0,14.0,86,0.00,,,0.00,Wunderground v.1.15,2013-03-04 01:24:00,
2013-03-03 20:25:00,26.5,22.9,29.67,NW,308,7.0,14.0,86,0.00,,,0.00,Wunderground v.1.15,2013-03-04 01:25:00,
2013-03-03 20:26:00,26.5,22.9,29.68,WNW,290,6.0,14.0,86,0.00,,,0.00,Wunderground v.1.15,2013-03-04 01:26:00,
2013-03-03 20:28:00,26.4,22.8,29.68,WNW,300,7.0,14.0,86,0.00,,,0.00,Wunderground v.1.15,2013-03-04 01:28:00,
2013-03-03 20:29:00,26.4,22.8,29.68,NW,317,5.0,14.0,86,0.00,,,0.00,Wunderground v.1.15,2013-03-04 01:29:00,
2013-03-03 20:30:00,26.4,22.8,29.68,WNW,298,6.0,9.0,86,0.00,,,0.00,Wunderground v.1.15,2013-03-04 01:30:00,
2013-03-03 20:32:00,26.4,22.8,29.68,NW,311,9.0,13.0,86,0.00,,,0.00,Wunderground v.1.15,2013-03-04 01:32:00,
2013-03-03 20:33:00,26.4,22.8,29.68,WNW,286,8.0,13.0,86,0.00,,,0.00,Wunderground v.1.15,2013-03-04 01:33:00,
2013-03-03 20:34:00,26.4,22.8,29.68,NW,319,7.0,13.0,86,0.00,,,0.00,Wunderground v.1.15,2013-03-04 01:34:00,
2013-03-03 20:35:00,26.4,22.8,29.68,NNW,339,8.0,13.0,86,0.00,,,0.00,Wunderground v.1.15,2013-03-04 01:35:00,
2013-03-03 20:37:00,26.4,22.8,29.68,NW,321,6.0,13.0,86,0.00,,,0.00,Wunderground v.1.15,2013-03-04 01:37:00,
2013-03-03 20:39:00,26.3,22.7,29.68,NNW,343,6.0,13.0,86,0.00,,,0.00,Wunderground v.1.15,2013-03-04 01:39:00,
2013-03-03 20:40:00,26.3,22.7,29.68,NNW,340,4.0,7.0,86,0.00,,,0.00,Wunderground v.1.15,2013-03-04 01:40:00,
2013-03-03 20:42:00,26.3,22.7,29.68,WNW,303,7.0,7.0,86,0.00,,,0.00,Wunderground v.1.15,2013-03-04 01:42:00,
2013-03-03 20:44:00,26.3,22.7,29.68,NW,315,5.0,7.0,86,0.00,,,0.00,Wunderground v.1.15,2013-03-04 01:44:00,
2013-03-03 20:45:00,26.3,22.7,29.68,NW,309,5.0,7.0,86,0.00,,,0.00,Wunderground v.1.15,2013-03-04 01:45:00,
2013-03-03 20:47:00,26.3,22.7,29.68,WNW,303,6.0,9.0,86,0.00,,,0.00,Wunderground v.1.15,2013-03-04 01:47:00,
2013-03-03 20:49:00,26.3,22.7,29.68,NNW,335,6.0,9.0,86,0.00,,,0.00,Wunderground v.1.15,2013-03-04 01:49:00,
2013-03-03 20:50:00,26.3,22.7,29.68,NNW,333,6.0,6.0,86,0.00,,,0.00,Wunderground v.1.15,2013-03-04 01:50:00,
2013-03-03 20:52:00,26.2,22.6,29.68,NNW,330,4.0,9.0,86,0.00,,,0.00,Wunderground v.1.15,2013-03-04 01:52:00,
2013-03-03 20:55:00,26.2,22.6,29.68,NW,306,4.0,9.0,86,0.00,,,0.00,Wunderground v.1.15,2013-03-04 01:55:00,
2013-03-03 20:57:00,26.2,22.9,29.68,NW,312,6.0,9.0,87,0.00,,,0.00,Wunderground v.1.15,2013-03-04 01:57:00,
2013-03-03 21:00:00,26.1,22.8,29.68,NW,308,6.0,6.0,87,0.00,,,0.00,Wunderground v.1.15,2013-03-04 02:00:00,
2013-03-03 21:02:00,26.1,22.8,29.68,NW,313,5.0,6.0,87,0.00,,,0.00,Wunderground v.1.15,2013-03-04 02:02:00,
2013-03-03 21:05:00,26.1,22.8,29.68,NW,319,4.0,7.0,87,0.00,,,0.00,Wunderground v.1.15,2013-03-04 02:05:00,
2013-03-03 21:07:00,26.1,22.8,29.68,NW,323,3.0,8.0,87,0.00,,,0.00,Wunderground v.1.15,2013-03-04 02:07:00,
2013-03-03 21:10:00,26.1,22.8,29.68,WNW,294,5.0,6.0,87,0.00,,,0.00,Wunderground v.1.15,2013-03-04 02:10:00,
2013-03-03 21:12:00,26.1,22.8,29.68,NW,325,4.0,6.0,87,0.00,,,0.00,Wunderground v.1.15,2013-03-04 02:12:00,
2013-03-03 21:15:00,26.1,22.8,29.68,NNW,327,2.0,6.0,87,0.00,,,0.00,Wunderground v.1.15,2013-03-04 02:15:00,
2013-03-03 21:16:00,26.0,22.7,29.68,NW,325,3.0,6.0,87,0.00,,,0.00,Wunderground v.1.15,2013-03-04 02:16:00,
2013-03-03 21:17:00,26.1,22.8,29.68,NNW,335,6.0,6.0,87,0.00,,,0.00,Wunderground v.1.15,2013-03-04 02:17:00,
2013-03-03 21:20:00,26.1,22.8,29.68,NNW,333,6.0,7.0,87,0.00,,,0.00,Wunderground v.1.15,2013-03-04 02:20:00,
2013-03-03 21:21:00,26.1,22.8,29.68,NNW,342,6.0,7.0,87,0.00,,,0.00,Wunderground v.1.15,2013-03-04 02:21:00,
2013-03-03 21:23:00,26.0,22.7,29.68,WNW,299,5.0,8.0,87,0.00,,,0.00,Wunderground v.1.15,2013-03-04 02:23:00,
2013-03-03 21:25:00,26.1,22.8,29.68,NNW,327,4.0,8.0,87,0.00,,,0.00,Wunderground v.1.15,2013-03-04 02:25:00,
2013-03-03 21:26:00,26.1,22.8,29.68,NW,316,4.0,8.0,87,0.00,,,0.00,Wunderground v.1.15,2013-03-04 02:26:00,
2013-03-03 21:28:00,26.1,22.8,29.68,NW,319,4.0,8.0,87,0.00,,,0.00,Wunderground v.1.15,2013-03-04 02:28:00,
2013-03-03 21:30:00,26.1,22.8,29.68,WNW,295,7.0,7.0,87,0.00,,,0.00,Wunderground v.1.15,2013-03-04 02:30:00,
2013-03-03 21:31:00,26.1,22.8,29.68,NW,326,3.0,7.0,87,0.00,,,0.00,Wunderground v.1.15,2013-03-04 02:31:00,
2013-03-03 21:33:00,26.1,22.8,29.68,NNW,328,3.0,7.0,87,0.00,,,0.00,Wunderground v.1.15,2013-03-04 02:33:00,
2013-03-03 21:35:00,26.1,22.8,29.67,NW,321,9.0,9.0,87,0.00,,,0.00,Wunderground v.1.15,2013-03-04 02:35:00,
2013-03-03 21:36:00,26.1,22.8,29.67,NNW,329,6.0,9.0,87,0.00,,,0.00,Wunderground v.1.15,2013-03-04 02:36:00,
2013-03-03 21:38:00,26.1,22.8,29.68,WNW,283,5.0,9.0,87,0.00,,,0.00,Wunderground v.1.15,2013-03-04 02:38:00,
2013-03-03 21:40:00,26.0,22.7,29.68,NW,308,8.0,10.0,87,0.00,,,0.00,Wunderground v.1.15,2013-03-04 02:40:00,
2013-03-03 21:41:00,26.0,22.7,29.68,NW,326,6.0,10.0,87,0.00,,,0.00,Wunderground v.1.15,2013-03-04 02:41:00,
2013-03-03 21:43:00,26.0,22.7,29.68,WNW,282,8.0,11.0,87,0.00,,,0.00,Wunderground v.1.15,2013-03-04 02:43:00,
2013-03-03 21:45:00,26.0,22.7,29.68,NW,326,4.0,11.0,87,0.00,,,0.00,Wunderground v.1.15,2013-03-04 02:45:00,
2013-03-03 21:46:00,26.0,22.7,29.68,NW,317,5.0,11.0,87,0.00,,,0.00,Wunderground v.1.15,2013-03-04 02:46:00,
2013-03-03 21:48:00,26.0,22.7,29.68,NW,317,4.0,11.0,87,0.00,,,0.00,Wunderground v.1.15,2013-03-04 02:48:00,
2013-03-03 21:50:00,26.0,22.7,29.68,NW,313,5.0,6.0,87,0.00,,,0.00,Wunderground v.1.15,2013-03-04 02:50:00,
2013-03-03 21:51:00,26.0,22.7,29.68,NW,307,6.0,6.0,87,0.00,,,0.00,Wunderground v.1.15,2013-03-04 02:51:00,
2013-03-03 21:53:00,26.0,22.7,29.68,North,356,5.0,10.0,87,0.00,,,0.00,Wunderground v.1.15,2013-03-04 02:53:00,
2013-03-03 21:55:00,25.9,22.6,29.68,WNW,294,6.0,11.0,87,0.00,,,0.00,Wunderground v.1.15,2013-03-04 02:55:00,
2013-03-03 21:56:00,25.9,22.6,29.68,NNW,328,7.0,11.0,87,0.00,,,0.00,Wunderground v.1.15,2013-03-04 02:56:00,
2013-03-03 21:58:00,25.9,22.6,29.68,WNW,297,5.0,11.0,87,0.00,,,0.00,Wunderground v.1.15,2013-03-04 02:58:00,
2013-03-03 22:01:00,25.9,22.6,29.68,NW,315,5.0,9.0,87,0.00,,,0.00,Wunderground v.1.15,2013-03-04 03:01:00,
2013-03-03 22:03:00,25.9,22.6,29.68,NNW,330,5.0,9.0,87,0.00,,,0.00,Wunderground v.1.15,2013-03-04 03:03:00,
2013-03-03 22:06:00,25.9,22.6,29.67,NW,315,5.0,9.0,87,0.00,,,0.00,Wunderground v.1.15,2013-03-04 03:06:00,
2013-03-03 22:07:00,25.8,22.5,29.68,WNW,295,7.0,9.0,87,0.00,,,0.00,Wunderground v.1.15,2013-03-04 03:07:00,
2013-03-03 22:08:00,25.8,22.5,29.67,NNW,339,6.0,9.0,87,0.00,,,0.00,Wunderground v.1.15,2013-03-04 03:08:00,
2013-03-03 22:11:00,25.8,22.5,29.67,NW,326,5.0,9.0,87,0.00,,,0.00,Wunderground v.1.15,2013-03-04 03:11:00,
2013-03-03 22:12:00,25.7,22.4,29.67,NW,312,7.0,9.0,87,0.00,,,0.00,Wunderground v.1.15,2013-03-04 03:12:00,
2013-03-03 22:13:00,25.7,22.6,29.67,WNW,303,11.0,11.0,88,0.00,,,0.00,Wunderground v.1.15,2013-03-04 03:13:00,
2013-03-03 22:16:00,25.7,22.4,29.67,NNW,347,8.0,14.0,87,0.00,,,0.00,Wunderground v.1.15,2013-03-04 03:16:00,
2013-03-03 22:17:00,25.6,22.3,29.67,NW,311,4.0,14.0,87,0.00,,,0.00,Wunderground v.1.15,2013-03-04 03:17:00,
2013-03-03 22:19:00,25.6,22.3,29.67,NW,326,6.0,14.0,87,0.00,,,0.00,Wunderground v.1.15,2013-03-04 03:19:00,
2013-03-03 22:21:00,25.6,22.3,29.67,NW,311,6.0,11.0,87,0.00,,,0.00,Wunderground v.1.15,2013-03-04 03:21:00,
2013-03-03 22:22:00,25.6,22.3,29.67,NW,312,6.0,11.0,87,0.00,,,0.00,Wunderground v.1.15,2013-03-04 03:22:00,
2013-03-03 22:24:00,25.5,22.4,29.67,North,352,11.0,12.0,88,0.00,,,0.00,Wunderground v.1.15,2013-03-04 03:24:00,
2013-03-03 22:26:00,25.5,22.2,29.67,WNW,299,11.0,12.0,87,0.00,,,0.00,Wunderground v.1.15,2013-03-04 03:26:00,
2013-03-03 22:27:00,25.5,22.2,29.67,NW,309,11.0,12.0,87,0.00,,,0.00,Wunderground v.1.15,2013-03-04 03:27:00,
2013-03-03 22:29:00,25.5,22.2,29.67,NW,308,7.0,14.0,87,0.00,,,0.00,Wunderground v.1.15,2013-03-04 03:29:00,
2013-03-03 22:31:00,25.5,22.2,29.67,NW,308,4.0,10.0,87,0.00,,,0.00,Wunderground v.1.15,2013-03-04 03:31:00,
2013-03-03 22:32:00,25.5,22.2,29.67,NW,323,3.0,10.0,87,0.00,,,0.00,Wunderground v.1.15,2013-03-04 03:32:00,
2013-03-03 22:34:00,25.5,22.4,29.67,NW,315,5.0,10.0,88,0.00,,,0.00,Wunderground v.1.15,2013-03-04 03:34:00,
2013-03-03 22:36:00,25.4,22.3,29.67,NW,323,9.0,12.0,88,0.00,,,0.00,Wunderground v.1.15,2013-03-04 03:36:00,
2013-03-03 22:37:00,25.4,22.1,29.67,WNW,292,9.0,12.0,87,0.00,,,0.00,Wunderground v.1.15,2013-03-04 03:37:00,
2013-03-03 22:39:00,25.4,22.1,29.67,NNW,330,7.0,12.0,87,0.00,,,0.00,Wunderground v.1.15,2013-03-04 03:39:00,
2013-03-03 22:41:00,25.4,22.1,29.67,NW,316,8.0,11.0,87,0.00,,,0.00,Wunderground v.1.15,2013-03-04 03:41:00,
2013-03-03 22:42:00,25.4,22.1,29.67,NW,321,5.0,11.0,87,0.00,,,0.00,Wunderground v.1.15,2013-03-04 03:42:00,
2013-03-03 22:44:00,25.3,22.0,29.67,NW,319,6.0,11.0,87,0.00,,,0.00,Wunderground v.1.15,2013-03-04 03:44:00,
2013-03-03 22:46:00,25.3,22.0,29.67,NNW,333,6.0,11.0,87,0.00,,,0.00,Wunderground v.1.15,2013-03-04 03:46:00,
2013-03-03 22:47:00,25.3,22.0,29.67,NW,304,6.0,11.0,87,0.00,,,0.00,Wunderground v.1.15,2013-03-04 03:47:00,
2013-03-03 22:48:00,25.3,22.0,29.67,NNW,327,9.0,11.0,87,0.00,,,0.00,Wunderground v.1.15,2013-03-04 03:48:00,
2013-03-03 22:49:00,25.3,22.0,29.67,NW,314,6.0,7.0,87,0.00,,,0.00,Wunderground v.1.15,2013-03-04 03:49:00,
2013-03-03 22:52:00,25.3,22.2,29.67,NW,307,5.0,9.0,88,0.00,,,0.00,Wunderground v.1.15,2013-03-04 03:52:00,
2013-03-03 22:53:00,25.3,22.0,29.67,NW,321,5.0,9.0,87,0.00,,,0.00,Wunderground v.1.15,2013-03-04 03:53:00,
2013-03-03 22:55:00,25.3,22.2,29.67,NW,321,5.0,9.0,88,0.00,,,0.00,Wunderground v.1.15,2013-03-04 03:55:00,
2013-03-03 22:57:00,25.3,22.2,29.67,WNW,300,5.0,9.0,88,0.00,,,0.00,Wunderground v.1.15,2013-03-04 03:57:00,
2013-03-03 22:58:00,25.3,22.2,29.67,NW,326,5.0,9.0,88,0.00,,,0.00,Wunderground v.1.15,2013-03-04 03:58:00,
2013-03-03 22:59:00,25.3,22.2,29.67,NNW,348,8.0,8.0,88,0.00,,,0.00,Wunderground v.1.15,2013-03-04 03:59:00,
2013-03-03 23:02:00,25.3,22.2,29.67,WNW,288,8.0,9.0,88,0.00,,,0.00,Wunderground v.1.15,2013-03-04 04:02:00,
2013-03-03 23:03:00,25.3,22.2,29.67,NNW,335,8.0,9.0,88,0.00,,,0.00,Wunderground v.1.15,2013-03-04 04:03:00,
2013-03-03 23:05:00,25.2,22.1,29.67,NW,308,3.0,9.0,88,0.00,,,0.00,Wunderground v.1.15,2013-03-04 04:05:00,
2013-03-03 23:07:00,25.2,22.1,29.67,NW,323,5.0,9.0,88,0.00,,,0.00,Wunderground v.1.15,2013-03-04 04:07:00,
2013-03-03 23:08:00,25.2,22.1,29.67,NW,308,4.0,9.0,88,0.00,,,0.00,Wunderground v.1.15,2013-03-04 04:08:00,
2013-03-03 23:10:00,25.2,22.1,29.67,NW,312,4.0,5.0,88,0.00,,,0.00,Wunderground v.1.15,2013-03-04 04:10:00,
2013-03-03 23:12:00,25.2,22.1,29.67,WNW,298,2.0,5.0,88,0.00,,,0.00,Wunderground v.1.15,2013-03-04 04:12:00,
2013-03-03 23:13:00,25.2,22.1,29.67,NNW,335,2.0,5.0,88,0.00,,,0.00,Wunderground v.1.15,2013-03-04 04:13:00,
2013-03-03 23:15:00,25.2,22.1,29.67,NW,304,2.0,5.0,88,0.00,,,0.00,Wunderground v.1.15,2013-03-04 04:15:00,
2013-03-03 23:17:00,25.2,22.1,29.67,NNW,346,3.0,5.0,88,0.00,,,0.00,Wunderground v.1.15,2013-03-04 04:17:00,
2013-03-03 23:18:00,25.1,22.0,29.67,NW,317,5.0,5.0,88,0.00,,,0.00,Wunderground v.1.15,2013-03-04 04:18:00,
2013-03-03 23:21:00,25.1,22.0,29.67,NW,308,2.0,3.0,88,0.00,,,0.00,Wunderground v.1.15,2013-03-04 04:21:00,
2013-03-03 23:22:00,25.1,22.0,29.67,NNW,348,2.0,3.0,88,0.00,,,0.00,Wunderground v.1.15,2013-03-04 04:22:00,
2013-03-03 23:23:00,25.1,22.0,29.67,NW,321,2.0,4.0,88,0.00,,,0.00,Wunderground v.1.15,2013-03-04 04:23:00,
2013-03-03 23:26:00,25.1,22.0,29.67,NW,309,6.0,6.0,88,0.00,,,0.00,Wunderground v.1.15,2013-03-04 04:26:00,
2013-03-03 23:28:00,25.1,22.0,29.67,NW,321,3.0,8.0,88,0.00,,,0.00,Wunderground v.1.15,2013-03-04 04:28:00,
2013-03-03 23:31:00,25.1,22.0,29.67,NW,316,3.0,4.0,88,0.00,,,0.00,Wunderground v.1.15,2013-03-04 04:31:00,
2013-03-03 23:33:00,25.1,22.0,29.67,NNW,327,3.0,4.0,88,0.00,,,0.00,Wunderground v.1.15,2013-03-04 04:33:00,
2013-03-03 23:34:00,25.1,22.0,29.67,NW,321,1.0,4.0,88,0.00,,,0.00,Wunderground v.1.15,2013-03-04 04:34:00,
2013-03-03 23:36:00,25.1,22.0,29.67,NW,318,3.0,4.0,88,0.00,,,0.00,Wunderground v.1.15,2013-03-04 04:36:00,
2013-03-03 23:38:00,25.0,21.9,29.67,North,352,4.0,5.0,88,0.00,,,0.00,Wunderground v.1.15,2013-03-04 04:38:00,
2013-03-03 23:39:00,25.0,21.9,29.67,NNW,333,4.0,5.0,88,0.00,,,0.00,Wunderground v.1.15,2013-03-04 04:39:00,
2013-03-03 23:41:00,25.0,21.9,29.67,North,351,1.0,3.0,88,0.00,,,0.00,Wunderground v.1.15,2013-03-04 04:41:00,
2013-03-03 23:43:00,25.0,21.9,29.67,North,355,3.0,5.0,88,0.00,,,0.00,Wunderground v.1.15,2013-03-04 04:43:00,
2013-03-03 23:44:00,25.0,21.9,29.67,NNE,24,4.0,5.0,88,0.00,,,0.00,Wunderground v.1.15,2013-03-04 04:44:00,
2013-03-03 23:46:00,25.0,21.9,29.67,WNW,300,4.0,5.0,88,0.00,,,0.00,Wunderground v.1.15,2013-03-04 04:46:00,
2013-03-03 23:48:00,24.9,21.8,29.67,North,9,2.0,5.0,88,0.00,,,0.00,Wunderground v.1.15,2013-03-04 04:48:00,
2013-03-03 23:49:00,24.9,21.8,29.67,West,281,3.0,5.0,88,0.00,,,0.00,Wunderground v.1.15,2013-03-04 04:49:00,
2013-03-03 23:51:00,24.9,21.8,29.67,NNW,331,7.0,7.0,88,0.00,,,0.00,Wunderground v.1.15,2013-03-04 04:51:00,
2013-03-03 23:53:00,24.8,21.5,29.67,WNW,300,5.0,9.0,87,0.00,,,0.00,Wunderground v.1.15,2013-03-04 04:53:00,
2013-03-03 23:54:00,24.8,21.8,29.67,NW,313,4.0,9.0,88,0.00,,,0.00,Wunderground v.1.15,2013-03-04 04:54:00,
2013-03-03 23:56:00,24.8,21.8,29.67,NNW,333,2.0,9.0,88,0.00,,,0.00,Wunderground v.1.15,2013-03-04 04:56:00,
2013-03-03 23:58:00,24.8,21.8,29.67,NW,323,3.0,9.0,88,0.00,,,0.00,Wunderground v.1.15,2013-03-04 04:58:00,
2013-03-03 23:59:00,24.8,21.8,29.67,WNW,295,2.0,9.0,88,0.00,,,0.00,Wunderground v.1.15,2013-03-04 04:59:00,